GFSMA_sfc_rhum_015.txt.gz
RH
80 79 79 74 65 59 60 59 54 50 53 49 49 51 48 46 48 53 72 70 66 56 49 54 58 57 57 57 56 56 58 60 63 64 64 66 69 71 73 74 78 84 84
93 84 75 71 64 62 61 60 55 54 54 53 51 52 48 50 45 47 52 66 72 70 59 55 51 50 50 51 52 52 52 53 53 57 60 62 64 65 66 69 72 75 78
80 68 75 70 66 63 58 59 61 64 63 56 55 54 54 49 46 44 45 47 76 74 70 53 47 46 48 46 48 49 48 48 50 54 56 56 61 64 64 64 66 70 73
68 72 70 72 66 66 66 68 69 66 68 66 66 62 57 49 45 40 39 41 54 69 74 65 55 50 48 47 48 47 45 50 53 52 52 56 59 61 63 64 63 62 65
61 71 72 66 59 66 72 67 70 72 71 72 50 47 58 57 48 43 40 36 46 48 62 69 65 60 44 44 46 46 47 48 48 48 52 57 57 58 60 61 62 60 60
53 65 69 69 67 68 70 69 69 71 76 68 42 46 58 55 54 55 49 39 44 43 51 48 47 46 52 43 41 42 44 43 46 50 52 54 55 56 58 59 61 61 60
59 60 64 60 67 66 70 69 73 66 66 71 60 59 55 55 48 52 55 51 46 45 46 45 44 44 48 42 38 38 40 42 47 46 47 49 52 53 56 57 59 60 60
53 53 63 66 65 66 67 69 67 68 74 69 65 71 67 61 57 52 51 44 54 52 45 42 43 44 50 49 42 33 33 36 38 41 43 46 49 51 53 56 57 59 59
35 38 52 56 58 64 72 73 71 70 71 70 68 69 75 79 70 56 47 52 52 52 55 53 46 42 43 47 46 48 46 46 46 46 46 45 46 49 52 55 56 58 58
39 39 52 57 60 66 61 72 65 80 76 78 75 58 66 68 69 70 56 51 52 43 53 55 54 48 46 54 50 56 65 55 43 43 43 44 46 47 50 54 55 57 59
44 46 53 56 64 70 72 82 83 84 82 81 78 74 66 64 58 64 70 63 57 52 53 58 58 57 53 49 52 48 65 62 51 43 44 45 47 48 51 54 55 57 59
53 54 45 62 64 71 81 84 83 84 85 81 75 77 69 64 65 67 72 72 66 61 53 54 58 61 58 52 42 57 64 66 60 48 48 48 50 50 51 54 54 57 59
51 51 54 61 67 76 72 78 83 86 86 89 85 76 71 69 63 62 66 68 71 62 59 60 59 55 45 58 58 56 51 64 60 51 50 51 51 50 51 54 55 56 62
54 51 57 57 62 65 74 80 83 85 86 87 86 73 74 62 67 63 62 67 76 70 67 61 60 59 56 62 57 55 61 57 60 61 53 50 50 50 51 54 57 59 65
40 53 56 55 60 66 73 76 82 82 83 74 72 71 66 72 71 65 65 64 77 78 65 62 64 56 62 62 59 61 61 55 61 61 60 58 54 54 53 58 61 63 67
48 54 55 57 57 59 63 72 79 71 65 72 72 70 66 72 71 71 63 66 71 79 88 65 63 62 61 46 50 54 59 52 55 61 63 65 61 58 60 60 61 62 63
47 51 54 56 56 57 60 64 64 56 69 75 74 68 71 68 74 73 73 72 73 73 76 66 62 66 66 68 58 64 58 52 55 56 61 62 65 71 72 71 70 71 67
52 51 52 57 57 60 61 61 63 63 68 72 74 70 68 51 65 68 73 68 68 68 76 74 67 65 68 66 66 65 49 45 54 54 61 64 66 68 82 82 85 81 78
51 50 53 58 60 58 57 61 65 62 65 65 68 68 70 67 66 70 64 67 70 56 75 80 68 67 65 68 60 65 63 65 49 55 57 62 70 76 79 81 86 86 84
50 50 55 60 64 54 52 57 60 64 62 60 62 62 61 59 56 59 56 63 60 75 75 76 68 65 66 63 71 74 78 80 78 60 63 74 71 76 79 89 84 81 83
50 51 57 61 63 60 55 63 59 60 59 60 62 56 55 56 56 58 54 67 74 80 83 77 72 68 68 70 76 84 87 81 71 74 77 76 74 85 84 96 91 82 84
55 55 57 58 60 56 77 72 63 60 56 59 67 65 58 58 63 63 59 60 64 78 85 89 77 74 72 81 90 90 84 77 75 77 84 75 71 76 81 92 97 92 88
57 57 56 57 59 71 79 72 65 56 58 68 70 63 57 52 66 64 64 62 64 62 62 78 78 75 77 75 79 77 78 86 85 74 80 77 72 72 68 57 74 96 88
55 58 60 60 69 71 81 75 67 60 67 73 68 67 66 72 71 68 71 74 74 71 63 57 70 67 67 69 79 73 76 79 82 78 79 86 77 78 69 70 70 74 84
60 60 60 60 77 84 80 72 62 71 76 74 69 67 68 63 68 58 72 77 78 74 58 59 60 65 68 67 67 82 94 96 94 80 81 88 88 97 82 89 87 71 82
59 60 57 65 75 84 79 69 65 93 83 91 79 71 64 69 60 61 83 85 89 76 78 71 71 72 69 74 73 81 82 95 93 92 82 93 84 94 97 96 95 96 98

GFSMA_sfc_rhum_018.txt.gz
RH
87 79 72 68 65 63 60 60 56 54 56 52 54 51 53 50 48 54 63 70 71 56 49 56 56 53 53 54 54 54 54 53 53 57 59 61 64 66 67 68 69 71 74
87 81 73 66 64 64 64 63 63 63 64 59 58 58 54 50 47 48 54 59 71 72 61 54 50 47 48 50 52 50 49 49 53 56 55 55 58 61 64 66 66 67 67
82 77 72 71 72 69 65 67 68 69 68 61 62 59 54 52 48 45 45 45 71 76 69 51 46 46 46 48 48 47 47 52 52 51 52 56 58 58 59 62 64 66 65
75 75 72 68 69 74 72 73 73 69 72 73 66 57 60 53 48 45 42 46 50 68 73 64 55 50 47 46 45 45 47 46 47 48 50 55 56 54 57 59 61 62 64
70 76 72 72 73 72 76 71 73 77 78 70 54 54 64 58 56 41 45 46 49 53 53 54 50 48 38 39 38 39 41 43 43 47 49 50 53 54 55 56 58 59 61
70 71 70 72 69 69 70 70 67 69 74 73 45 48 57 60 58 60 52 43 49 52 53 47 53 47 49 38 35 36 37 38 43 44 44 46 48 51 52 53 55 57 58
61 66 69 70 70 68 72 73 72 65 66 72 62 63 62 60 58 58 54 54 49 48 50 51 54 55 52 40 36 35 36 36 38 38 39 43 45 47 49 50 52 55 56
61 57 64 58 61 67 70 72 72 71 81 76 70 74 72 66 60 52 54 52 54 50 49 44 49 46 51 54 57 49 41 37 36 39 41 42 43 46 47 49 51 53 55
40 51 55 58 60 64 64 71 78 74 74 79 73 70 75 79 74 64 54 56 54 56 58 56 51 47 50 56 57 62 55 47 38 38 41 43 44 45 47 48 50 52 54
50 53 56 61 65 72 72 79 80 85 80 79 79 60 68 64 69 68 61 58 57 49 56 62 58 55 56 56 48 51 58 55 41 40 42 43 45 47 48 49 49 52 54
56 53 57 65 69 83 87 85 86 82 81 82 79 78 72 71 66 69 73 68 63 58 59 57 60 64 55 54 56 53 66 64 50 45 46 47 48 48 49 50 50 51 53
62 54 58 66 74 84 84 85 87 85 88 86 84 80 74 67 68 69 75 74 70 63 58 58 62 63 63 64 50 58 53 56 51 49 50 51 51 52 52 51 51 52 52
59 54 61 64 70 81 81 85 87 88 89 90 86 80 76 74 70 68 72 70 72 69 63 64 59 62 53 68 65 54 54 56 54 52 52 52 51 50 50 51 51 53 54
56 58 56 57 64 72 76 83 84 84 89 91 86 87 81 72 73 69 67 72 77 72 72 64 67 67 67 66 62 54 65 55 53 54 53 51 50 51 52 54 53 54 55
50 53 56 56 61 62 75 83 86 83 86 84 79 79 76 75 76 73 68 69 77 90 77 72 69 65 69 66 63 61 62 58 54 53 55 56 54 53 53 54 57 58 59
50 54 54 57 58 60 62 72 78 74 71 81 82 75 75 76 76 78 67 72 75 81 90 75 71 68 66 51 54 61 66 51 55 55 60 58 60 58 58 59 64 63 60
52 51 53 55 55 59 62 62 63 63 72 74 75 73 72 71 72 72 73 72 71 71 76 75 72 73 70 72 61 69 60 60 64 57 56 58 60 66 68 67 72 73 72
54 51 53 54 58 62 64 64 65 67 71 74 76 73 69 56 66 71 71 65 66 68 76 78 73 69 71 68 69 70 55 48 62 58 60 58 62 65 67 74 74 78 78
55 53 52 57 61 65 64 62 66 69 68 71 73 71 69 69 64 70 64 66 69 56 75 82 74 72 71 70 66 68 71 72 62 56 54 53 68 63 64 67 75 84 82
58 55 55 58 64 65 59 59 64 68 68 63 62 62 61 61 58 61 60 63 63 74 77 80 75 71 70 65 76 79 82 78 74 52 56 60 62 60 61 67 82 94 88
56 55 58 61 63 63 58 68 64 67 64 63 65 58 60 60 60 59 59 72 75 82 83 82 79 77 73 76 79 81 91 78 69 68 72 85 73 77 78 67 83 98 95
59 61 60 66 66 55 71 77 71 68 61 61 65 67 58 56 65 65 63 61 64 76 84 93 84 80 82 74 84 82 86 80 83 79 88 80 76 80 79 79 74 78 96
64 62 65 66 68 70 78 80 74 62 58 62 74 65 58 58 67 63 61 60 61 59 59 85 87 82 79 71 75 85 87 88 88 77 89 89 83 83 73 59 66 72 76
63 64 63 65 71 68 84 78 72 61 63 69 74 69 69 69 70 66 69 70 70 70 67 62 78 77 74 76 81 76 88 93 88 83 85 93 83 87 78 76 69 74 75
69 69 63 66 70 80 84 78 68 67 70 76 71 70 69 72 68 65 71 74 74 72 56 61 62 65 68 66 71 85 90 94 92 81 80 89 92 96 95 95 87 74 81
65 67 69 67 77 84 86 78 68 87 83 88 80 75 67 64 71 65 84 86 91 74 74 74 74 70 74 73 70 83 88 96 94 91 85 96 94 96 96 96 94 95 97

GFSMA_sfc_rhum_021.txt.gz
RH
84 73 70 69 68 65 64 62 60 60 60 58 60 54 51 51 50 57 65 68 73 61 45 55 56 53 54 54 55 54 52 53 57 57 54 58 59 60 61 64 66 67 69
84 78 71 68 67 68 68 68 68 68 67 63 61 55 55 51 48 49 55 68 82 76 62 55 49 48 49 52 51 49 52 55 54 52 53 57 57 56 58 60 60 62 64
85 74 74 76 76 72 71 71 71 72 72 65 59 57 58 50 49 46 48 46 69 80 67 56 49 51 51 50 48 45 50 49 49 49 49 56 58 57 57 57 58 60 62
75 75 73 76 78 76 74 75 75 74 78 68 61 65 60 56 48 48 48 51 59 61 67 53 51 46 44 44 43 43 45 47 46 47 50 51 52 54 54 55 55 57 59
73 74 74 78 74 73 75 68 79 78 79 70 55 66 65 61 56 42 47 50 53 54 52 52 56 54 42 38 39 39 40 41 42 45 47 46 47 49 52 53 53 53 55
72 76 75 75 72 72 74 74 65 72 79 76 46 55 66 63 59 59 53 44 50 50 50 48 59 54 52 40 38 38 39 40 40 42 41 42 44 45 49 50 50 51 52
67 70 76 73 72 72 78 72 74 69 78 77 66 66 69 64 60 58 58 54 50 50 50 52 56 56 54 51 51 45 40 40 40 39 40 43 43 44 46 48 49 50 51
67 68 64 60 62 63 65 73 76 77 87 81 74 75 74 68 64 57 59 54 53 55 52 49 51 49 56 58 60 44 44 41 41 40 41 43 44 45 45 46 48 50 51
49 54 58 62 65 65 67 72 81 75 81 78 75 73 79 81 77 66 57 59 57 58 58 56 50 51 55 58 56 59 48 40 37 39 40 42 44 45 46 47 48 50 51
58 56 61 68 73 77 77 86 82 88 81 82 78 64 70 70 73 73 64 62 62 49 56 61 58 56 57 60 55 54 57 62 49 45 45 45 47 48 48 50 50 51 52
61 58 66 70 79 83 81 77 78 80 79 79 81 82 78 76 71 72 72 67 65 61 61 61 62 65 58 62 64 61 57 55 53 51 52 52 53 52 52 52 53 53 53
64 65 64 74 82 81 77 78 84 83 86 85 87 84 76 72 70 74 78 76 76 63 60 59 62 62 68 69 54 58 55 57 56 54 55 56 56 56 54 53 53 54 55
60 63 63 65 72 75 77 81 86 87 90 90 87 86 83 77 75 74 77 77 73 70 65 64 64 69 58 72 69 56 56 56 55 54 54 54 53 52 52 54 56 56 56
61 61 62 60 73 71 82 87 84 88 89 93 90 92 85 83 77 75 70 74 82 74 69 65 68 71 70 71 62 53 67 59 55 55 56 54 53 54 54 54 55 55 55
58 62 60 62 60 64 78 87 86 86 88 91 87 83 83 79 78 77 75 74 80 98 80 75 71 69 70 68 64 62 69 59 52 52 54 55 56 56 58 58 58 58 57
56 61 59 58 59 59 60 69 84 75 71 77 84 82 78 82 83 81 71 76 79 84 92 79 72 72 70 54 57 63 70 57 60 57 57 59 58 62 60 60 62 61 62
58 57 58 58 57 57 64 66 65 63 71 75 78 79 77 76 81 78 78 77 74 72 76 68 73 73 72 70 65 71 69 68 70 60 62 60 59 58 64 66 66 68 70
58 56 58 56 58 60 64 67 68 67 75 79 79 78 75 63 72 70 74 68 69 68 72 74 75 74 73 68 69 74 60 52 66 65 61 57 55 55 65 64 63 65 72
62 58 57 57 57 63 66 71 70 74 78 78 77 80 76 77 76 75 71 70 70 58 75 84 79 76 77 73 70 70 70 71 66 59 55 56 58 62 61 62 61 64 74
60 58 58 58 62 65 67 68 66 73 75 76 79 80 76 72 66 64 63 66 63 73 78 83 78 75 78 72 78 81 70 66 66 55 59 62 62 66 66 67 66 65 74
58 56 58 62 67 65 61 71 68 74 74 71 70 64 64 64 59 61 60 67 75 82 84 82 80 84 77 80 75 69 75 76 76 72 75 79 77 78 79 75 71 68 77
60 60 66 70 73 60 67 77 77 75 69 67 68 68 62 61 67 71 63 70 74 78 82 91 90 87 82 81 82 85 89 86 86 81 89 85 77 82 82 85 75 69 69
78 80 73 67 70 74 78 79 84 74 69 69 65 68 62 52 70 75 71 65 64 63 62 81 91 84 89 78 80 87 88 90 91 82 92 84 81 85 73 63 70 71 69
82 82 73 68 74 71 80 83 85 72 69 67 72 74 71 69 74 68 68 71 69 68 66 62 76 82 80 80 84 78 91 91 87 82 84 93 83 85 78 77 73 76 77
88 75 70 72 73 75 79 85 78 72 69 71 73 72 72 73 70 70 75 75 73 73 57 60 62 65 67 68 69 81 90 92 90 80 80 89 93 90 91 87 88 73 81
70 71 76 79 80 82 82 86 75 86 80 83 83 79 78 75 71 72 85 86 93 82 74 71 74 74 72 75 70 77 87 95 88 92 87 96 83 92 98 96 96 95 97

GFSMA_sfc_rhum_024.txt.gz
RH
84 73 71 72 69 66 65 66 66 65 66 62 59 56 53 53 54 57 70 82 78 63 49 61 55 55 55 56 54 52 53 58 54 54 56 59 59 58 60 59 58 58 59
81 74 70 70 70 71 72 71 70 70 70 64 61 57 52 52 50 53 56 80 75 68 59 54 50 50 52 52 50 48 55 52 51 50 51 58 59 59 58 57 56 56 57
82 74 76 76 74 74 73 74 75 74 72 59 62 59 54 53 51 52 56 60 74 70 66 55 55 55 52 49 47 47 48 48 48 46 47 53 53 54 53 54 56 56 56
74 76 76 80 80 77 76 76 76 78 73 66 67 65 60 54 52 53 57 59 58 48 59 57 51 46 39 39 40 40 41 42 42 43 47 49 48 48 49 53 53 53 54
71 74 78 81 77 75 76 72 80 78 73 71 64 66 64 60 56 43 50 53 54 52 50 52 54 56 46 44 42 40 39 41 41 42 45 44 43 45 47 48 50 51 51
72 78 80 79 76 74 76 71 69 80 80 74 48 59 66 64 61 58 54 46 52 53 52 55 58 52 51 48 45 42 41 43 42 41 41 42 44 45 45 46 46 47 49
73 76 78 75 74 74 79 74 74 72 80 79 70 71 69 67 61 61 58 54 53 52 54 55 52 52 52 51 50 42 42 42 42 42 42 42 42 43 45 46 46 47 48
72 73 71 72 73 71 71 78 75 84 82 80 74 75 77 70 65 57 60 55 60 56 53 54 55 54 58 54 58 46 44 42 42 40 41 41 42 43 45 46 47 47 48
58 57 62 67 66 68 69 78 81 77 80 73 76 74 78 78 76 68 62 61 61 60 58 57 53 53 59 58 57 58 53 50 45 45 43 42 42 44 46 47 48 48 50
60 59 65 71 74 79 83 81 80 84 80 77 77 67 73 72 73 73 63 62 64 54 59 60 56 56 58 60 58 58 61 60 58 53 48 47 47 48 50 50 50 51 52
64 66 69 74 82 86 80 76 74 78 78 82 80 79 77 75 69 70 68 64 61 60 59 62 61 62 61 65 66 66 58 60 59 57 56 56 55 55 55 54 54 53 52
72 70 71 81 83 81 78 76 76 78 80 81 82 77 76 73 70 73 75 72 70 65 60 62 63 64 68 66 53 58 58 59 60 58 58 58 59 58 56 55 54 53 53
73 69 71 77 82 79 81 78 81 85 86 85 83 81 82 78 74 73 74 75 72 67 65 64 63 66 54 66 66 55 54 58 57 58 57 56 57 58 56 55 56 56 56
67 69 62 65 76 76 78 81 85 86 89 91 89 90 87 85 80 76 72 74 76 72 68 64 65 68 64 64 58 53 61 60 57 55 56 56 56 57 57 56 56 58 57
58 64 61 64 75 73 77 85 86 85 89 92 93 91 88 84 81 77 74 74 78 89 82 68 67 66 64 64 60 60 62 62 58 57 58 57 58 58 57 60 60 58 58
63 62 63 63 65 67 71 80 86 87 89 90 87 87 86 81 80 85 77 76 78 80 80 69 67 64 60 52 57 58 61 62 62 62 60 61 61 59 59 58 58 58 58
58 60 61 63 63 64 65 68 74 74 73 74 79 85 83 81 85 86 78 75 72 70 72 61 65 62 63 60 59 61 64 64 65 62 63 62 61 58 57 58 58 67 64
61 59 61 60 61 64 67 71 72 68 75 78 79 84 81 69 78 78 77 72 68 67 64 65 66 65 66 62 63 66 58 52 59 61 64 58 58 59 58 61 62 63 64
61 60 60 61 62 64 66 73 75 75 78 80 81 83 80 82 82 80 75 72 68 57 68 75 71 70 68 66 63 64 66 62 56 59 60 61 62 65 64 65 65 64 63
62 61 61 62 63 62 67 69 71 77 79 80 82 83 83 82 79 74 69 68 63 67 70 75 76 69 68 64 71 73 64 61 64 57 63 65 66 70 69 69 71 70 67
60 60 63 63 71 78 61 71 74 77 79 81 82 81 80 72 68 67 60 65 66 71 76 76 71 69 69 69 74 65 72 73 72 68 67 68 71 74 73 73 72 72 74
63 64 68 84 90 66 72 77 79 80 77 79 76 74 66 69 73 75 75 64 66 77 77 78 74 73 70 74 76 81 85 78 76 72 80 75 64 72 74 76 73 71 70
79 88 90 88 79 75 76 81 84 89 83 75 74 67 68 56 70 68 76 76 74 70 67 76 80 73 81 75 74 84 81 84 82 71 79 77 64 72 63 58 70 72 84
92 94 92 84 78 70 79 82 85 92 84 78 71 69 72 66 69 71 74 75 69 64 65 64 71 68 74 73 78 76 81 80 75 70 66 82 69 76 66 67 75 73 71
95 93 86 75 76 80 80 81 88 92 82 75 69 74 72 71 70 72 74 73 67 66 62 66 64 71 70 70 69 81 83 87 89 69 63 78 76 78 75 78 79 74 72
91 79 78 79 82 87 84 83 89 91 86 81 77 77 78 72 74 76 87 84 86 70 74 68 65 68 72 74 73 72 71 92 90 81 75 87 73 81 82 77 80 76 80

GFSMA_sfc_rhum_027.txt.gz
RH
63 52 54 49 47 46 45 46 45 43 45 42 40 38 37 38 40 36 48 78 78 60 58 60 55 56 55 53 51 52 55 50 50 50 52 60 59 57 56 56 56 55 55
62 54 53 48 48 44 46 44 44 43 41 40 40 38 36 34 38 47 46 55 77 68 59 54 51 52 56 52 48 47 49 48 47 46 46 51 51 52 51 52 53 53 54
63 58 50 51 51 51 53 52 50 47 40 39 40 37 34 37 35 43 47 47 45 68 67 59 54 49 47 45 43 41 40 42 43 44 44 49 49 48 47 48 49 50 52
58 58 52 54 52 52 49 48 48 46 46 42 42 35 34 33 39 39 39 39 36 33 50 56 54 48 44 41 41 40 41 42 43 43 43 46 45 43 46 45 45 46 48
55 54 52 58 56 50 52 48 52 49 47 44 39 38 37 33 35 28 34 35 36 31 27 50 56 54 48 45 43 40 40 42 43 43 43 42 42 44 45 45 45 45 45
55 57 57 60 52 49 50 46 51 52 48 43 32 38 39 36 34 35 33 28 32 35 31 33 28 32 48 43 39 38 40 43 44 44 45 45 45 45 44 44 45 46 47
55 58 54 56 52 49 50 53 50 53 49 50 44 42 41 42 40 34 33 32 33 32 36 31 27 25 26 43 44 40 40 42 43 43 43 43 44 44 43 44 45 46 46
55 57 57 52 52 50 57 57 56 53 49 52 45 46 46 44 40 37 35 35 43 33 32 34 36 36 33 28 41 48 46 44 44 44 44 45 45 45 44 44 46 47 48
53 52 56 52 51 45 45 54 56 56 50 52 54 42 46 41 46 43 44 37 44 37 36 35 37 36 38 34 37 40 52 56 53 49 48 47 48 47 47 48 48 49 50
51 41 44 49 51 49 53 55 54 56 54 51 51 44 51 48 42 41 41 41 40 39 42 35 34 36 39 35 45 53 60 60 61 60 56 53 52 51 50 50 50 51 56
48 43 49 54 55 53 60 64 68 61 57 65 49 52 53 48 50 44 38 37 37 35 37 38 38 37 40 41 39 45 58 60 59 62 62 60 58 56 54 53 52 52 52
49 52 49 55 58 58 68 81 74 67 60 51 47 49 43 41 40 43 44 44 45 41 38 38 41 40 42 40 40 54 53 54 57 57 57 58 57 58 57 56 56 56 54
60 60 59 60 56 63 66 63 66 62 58 53 55 49 48 46 45 46 48 43 47 40 42 40 40 40 37 42 42 49 47 53 54 56 56 56 58 58 58 58 58 57 56
62 59 58 55 63 73 64 62 62 58 63 61 62 59 52 52 53 50 48 49 50 43 43 51 42 42 41 40 43 51 38 47 55 56 58 59 58 58 58 58 58 57 58
57 64 54 54 74 72 72 67 60 63 65 65 64 64 62 57 56 54 53 49 53 60 42 36 44 42 41 38 38 44 39 43 57 59 59 60 60 60 60 59 58 58 58
55 56 54 71 66 68 64 68 68 64 66 65 59 63 62 56 55 53 45 51 54 55 53 34 35 40 39 31 37 43 36 52 50 58 61 60 61 62 61 60 60 59 59
66 60 64 56 61 60 54 57 57 60 64 61 58 57 56 57 54 54 55 55 52 49 49 36 36 38 42 41 39 35 36 38 38 49 55 60 62 62 60 60 60 60 61
63 58 58 56 50 52 52 52 56 50 56 55 53 57 56 50 60 58 55 54 50 47 46 43 37 38 41 43 41 39 33 33 38 44 55 61 62 64 64 64 65 65 63
61 56 50 48 51 51 50 58 61 58 58 56 54 56 54 58 58 53 54 52 48 43 44 45 42 38 42 39 38 34 38 40 33 47 51 56 59 62 64 67 68 68 68
61 52 50 47 54 53 56 74 68 58 61 57 59 60 57 59 57 54 54 53 48 46 43 43 41 41 39 38 38 39 40 37 38 36 46 53 58 59 62 66 70 70 70
61 59 66 64 73 79 83 86 69 59 59 59 62 59 60 63 69 62 49 48 46 45 44 44 44 41 39 38 36 41 44 42 42 40 45 42 43 44 44 53 56 61 69
64 53 65 81 83 81 91 88 75 59 58 59 59 58 57 75 76 80 76 66 50 48 50 47 44 45 43 39 42 49 53 51 49 39 49 45 39 43 47 47 55 64 70
71 79 85 88 87 85 86 82 83 59 60 60 60 56 52 46 62 48 72 80 75 69 64 50 53 47 52 41 44 51 50 50 50 43 50 48 40 44 40 36 57 66 72
91 91 89 80 82 76 83 86 83 62 60 59 60 58 57 52 49 52 48 51 52 54 55 50 48 46 44 41 48 53 60 57 46 41 40 54 44 50 44 46 58 65 74
94 84 76 84 81 87 89 84 79 65 64 61 58 57 56 52 62 71 55 56 52 49 55 64 63 68 63 69 69 62 66 60 68 43 39 50 47 52 54 54 51 59 70
80 85 91 90 92 82 77 84 79 69 75 70 63 58 76 57 73 80 66 67 66 47 46 48 50 54 60 55 69 64 53 69 64 62 38 60 53 58 63 46 53 57 61

GFSMA_sfc_rhum_030.txt.gz
RH
52 44 44 37 36 36 36 37 37 34 37 35 33 32 31 32 30 24 30 79 76 60 61 59 59 56 53 51 49 52 50 49 47 46 47 52 50 51 50 51 51 53 53
51 45 43 38 37 34 34 33 33 32 31 32 35 33 31 28 30 31 25 43 76 70 59 54 55 58 53 49 46 46 45 44 44 44 45 45 49 50 49 48 50 50 50
53 48 38 40 38 38 40 39 37 36 32 29 33 30 28 30 27 32 28 28 41 70 62 56 52 47 44 43 42 42 42 44 44 45 45 45 49 48 45 47 46 46 46
48 48 42 42 39 39 36 36 35 34 32 28 30 26 27 27 31 31 29 28 27 23 54 54 52 47 45 45 44 42 42 42 44 45 45 45 45 45 44 47 46 45 46
45 45 40 44 45 38 40 37 37 34 32 28 27 27 29 26 30 21 29 30 30 26 22 52 50 50 46 42 38 37 40 43 44 46 47 48 49 48 47 48 45 45 46
46 46 44 50 41 37 39 37 38 32 31 29 19 26 31 29 28 29 29 24 28 31 28 28 26 30 44 41 37 36 40 42 44 45 45 46 46 46 47 46 45 45 46
46 49 44 47 40 38 39 42 36 39 33 34 33 34 34 37 36 29 29 27 29 29 32 27 26 22 24 38 38 41 40 41 43 45 46 46 46 47 48 48 47 46 46
45 47 47 43 41 40 45 42 39 33 31 36 38 36 40 36 34 34 29 30 37 29 27 30 31 29 27 23 35 38 44 48 48 50 49 49 50 50 49 49 49 49 49
45 44 48 43 46 40 38 42 40 38 36 39 44 46 40 34 33 32 40 33 37 34 30 29 31 30 30 29 33 34 54 56 56 55 54 53 52 52 51 50 50 50 50
49 41 44 46 46 34 35 36 34 43 43 49 43 36 40 34 28 29 34 36 36 34 36 33 30 31 32 31 36 48 56 59 60 59 56 55 56 55 54 53 52 52 52
55 42 42 44 42 35 38 38 50 52 48 41 41 40 39 34 36 35 34 26 26 27 28 31 32 32 31 32 34 41 53 55 55 55 54 53 55 55 56 55 54 54 53
60 48 40 44 41 37 46 53 69 65 48 45 37 34 31 34 34 35 33 32 31 30 28 30 32 31 32 33 35 53 50 51 51 54 53 54 55 56 58 58 57 56 55
60 54 48 52 57 58 58 59 73 71 51 45 41 34 36 35 31 30 33 33 33 30 30 32 32 31 28 32 33 45 47 52 48 51 55 56 58 59 60 60 59 58 58
69 55 69 62 50 63 62 80 77 57 51 45 47 46 36 36 35 35 35 38 40 31 29 34 30 32 31 32 39 53 36 53 47 48 54 58 59 60 60 61 60 59 59
53 66 74 63 58 67 75 83 60 51 52 52 51 49 42 36 38 38 37 36 41 48 34 29 29 29 31 33 37 35 37 46 46 51 54 58 61 61 61 61 61 60 59
57 58 63 62 79 80 84 67 51 50 49 52 46 46 43 37 36 37 31 34 36 41 45 31 28 30 32 28 34 34 36 42 47 51 50 53 56 59 62 62 61 61 60
57 59 68 86 78 76 59 59 52 42 61 54 49 45 44 38 36 35 36 36 37 38 40 34 28 28 35 39 34 33 33 31 28 48 48 51 55 59 62 63 64 63 63
69 73 76 68 56 49 47 50 44 47 56 61 48 45 41 31 43 42 38 42 40 38 38 42 36 32 34 35 36 38 28 21 27 38 45 50 54 58 62 64 64 65 66
77 75 66 55 53 52 44 53 52 66 79 59 44 43 42 42 45 43 42 42 38 33 38 40 38 33 32 30 33 32 31 31 23 36 47 52 49 53 58 61 63 67 69
68 62 60 52 56 44 40 58 74 78 67 51 50 47 44 44 44 46 43 44 41 41 41 39 37 35 30 29 30 31 28 28 28 23 36 47 53 53 57 57 59 62 65
59 60 59 65 52 58 65 80 76 76 61 52 50 45 46 50 61 57 40 45 45 44 42 39 37 35 30 29 30 29 30 31 34 31 30 31 32 33 35 47 51 56 56
58 65 58 74 75 74 98 98 93 76 58 52 51 47 44 59 64 79 76 73 56 48 49 44 40 37 34 33 32 33 35 39 38 30 36 36 32 32 34 33 56 60 59
68 72 73 72 78 74 95 93 91 70 72 64 54 49 43 34 50 48 73 81 74 71 66 47 46 38 40 36 36 35 37 38 40 36 37 36 32 33 32 27 58 62 64
80 77 79 71 67 66 89 90 94 88 71 53 48 45 44 44 41 46 49 52 50 50 53 42 44 38 36 37 37 35 44 46 42 35 33 42 35 39 36 36 55 62 62
67 71 68 68 78 78 87 94 91 63 54 51 44 44 43 44 55 74 53 52 50 50 59 70 68 67 66 63 56 46 56 54 64 36 32 37 38 42 42 44 46 60 66
70 77 83 88 93 90 84 90 76 63 62 58 53 48 64 61 69 80 58 58 62 52 45 42 46 56 65 57 72 57 47 61 56 54 36 45 39 43 52 43 46 49 58

GFSMA_sfc_rhum_033.txt.gz
RH
52 42 42 40 38 39 39 39 40 34 35 34 31 29 27 29 27 22 43 77 76 60 65 61 60 59 54 50 52 51 50 47 47 46 46 47 49 50 51 50 51 51 51
53 44 48 40 38 36 36 35 33 32 29 30 33 28 27 24 27 29 27 52 78 71 61 58 61 58 53 49 47 45 44 43 45 46 47 46 50 51 49 47 48 48 48
52 49 41 41 38 37 38 36 35 32 30 26 28 27 26 27 27 29 25 31 49 74 65 58 52 50 47 45 44 44 43 44 45 46 46 46 46 47 48 46 48 48 47
51 50 41 42 39 40 37 34 34 32 31 27 28 25 26 26 30 30 27 27 26 33 58 58 51 48 47 43 40 39 39 41 44 46 47 50 51 52 52 51 53 51 47
46 48 42 43 44 39 38 36 35 34 32 28 26 28 30 28 30 21 28 30 31 25 26 51 49 46 41 38 36 36 39 41 43 45 46 47 47 48 49 50 51 49 47
47 50 42 47 46 40 39 37 39 31 30 29 19 24 33 31 30 30 30 25 27 30 29 30 32 37 45 40 31 33 38 40 41 42 45 46 48 49 49 49 50 49 48
47 51 43 49 48 41 40 43 38 39 32 32 34 35 35 38 40 32 30 28 28 29 31 30 29 24 31 39 38 37 33 38 42 44 48 49 50 51 52 52 51 50 50
46 49 49 49 48 39 44 46 40 35 31 36 39 40 46 41 37 37 31 30 35 31 29 30 31 31 30 26 40 37 40 43 48 52 54 53 54 53 52 52 51 50 50
48 46 50 48 48 42 46 48 44 40 35 39 43 46 46 42 35 35 40 34 36 36 35 30 31 31 32 31 34 39 55 54 53 54 54 53 53 53 53 54 53 52 51
55 45 46 50 49 44 46 45 37 38 41 41 43 39 45 44 38 34 34 38 38 38 40 34 32 32 31 31 40 56 60 57 54 53 53 52 51 52 53 54 54 54 53
56 49 47 53 52 47 45 47 41 44 52 61 60 62 45 39 40 40 40 32 35 30 29 31 33 33 32 30 33 57 56 48 49 53 53 54 53 53 54 55 56 55 54
56 56 48 57 59 60 47 43 48 61 70 60 70 56 40 36 36 38 40 38 33 28 26 29 34 32 31 31 35 53 48 48 52 49 50 53 55 55 57 58 58 57 55
68 71 70 71 72 67 81 82 77 81 80 74 60 46 33 38 36 32 33 34 35 31 30 30 31 31 27 32 34 45 43 58 58 47 48 51 54 56 58 58 60 59 57
84 91 85 70 66 75 73 76 87 88 85 76 62 44 42 42 35 34 35 39 43 36 31 34 27 29 30 30 39 50 37 58 58 52 49 52 54 57 60 60 61 60 59
74 74 62 62 68 75 86 91 90 84 85 66 53 53 51 44 36 36 38 37 41 48 39 32 29 29 27 29 38 35 37 47 58 58 55 50 51 54 57 59 61 62 61
66 59 62 64 64 77 91 90 91 86 69 66 55 65 56 45 40 37 33 34 35 40 44 31 30 31 30 23 34 36 37 52 53 61 63 56 48 52 55 59 61 62 62
62 57 64 66 71 82 86 85 83 64 57 53 64 63 55 47 42 36 35 35 35 36 43 36 30 33 35 35 32 35 36 35 34 51 59 59 54 52 54 57 60 63 63
68 67 60 64 75 80 77 75 73 55 50 59 80 72 59 39 43 42 40 44 40 42 42 47 39 36 38 36 39 38 30 25 28 36 55 54 54 55 55 57 60 62 62
77 70 70 76 79 78 71 72 58 48 67 77 76 65 51 48 48 45 46 45 44 39 42 45 43 38 35 35 35 34 34 33 24 39 53 60 62 58 55 58 59 61 62
74 74 76 78 79 67 57 54 64 72 79 80 78 62 50 48 49 50 48 51 48 52 51 49 45 42 36 36 32 32 35 31 26 19 36 46 52 49 57 62 65 62 62
68 68 72 70 71 61 58 64 78 82 81 80 74 56 53 56 66 64 46 53 55 54 53 51 48 43 38 38 36 30 31 31 32 34 33 31 34 35 37 45 46 62 62
59 58 60 56 67 64 97 95 82 70 79 80 74 64 58 64 61 73 71 73 63 60 60 56 52 49 43 40 37 38 36 37 37 34 38 39 34 34 37 36 52 58 63
56 63 69 74 76 80 97 96 93 78 83 85 85 84 65 48 50 40 50 77 78 80 77 61 60 57 51 43 42 42 40 37 37 35 41 42 36 36 34 26 57 62 66
60 62 60 56 57 58 91 92 91 90 93 89 81 60 50 47 44 47 45 48 48 52 60 52 51 53 50 44 40 37 42 40 43 41 40 47 39 41 36 39 52 58 66
58 60 56 56 62 70 92 90 94 89 69 59 49 45 44 44 56 68 55 60 54 52 56 70 67 67 65 63 53 44 52 50 69 40 38 38 39 43 45 47 48 75 70
70 65 76 80 86 82 82 93 84 64 66 63 57 51 64 60 69 74 66 65 69 57 57 60 59 63 67 60 73 52 46 63 60 58 42 46 40 42 50 44 48 52 56

GFSMA_sfc_rhum_036.txt.gz
RH
79 74 70 63 62 63 63 65 60 54 52 48 46 41 41 40 39 56 81 79 78 71 65 62 62 58 55 53 55 52 48 46 46 47 48 48 49 51 50 49 50 50 50
72 69 69 65 64 60 61 61 59 53 54 50 45 39 40 41 38 53 62 86 79 76 67 63 62 58 55 51 48 45 44 46 46 46 47 48 48 48 50 48 48 50 50
69 70 66 69 66 62 59 60 51 53 50 41 45 42 42 37 41 39 59 67 77 76 69 59 56 53 50 48 47 45 43 42 43 45 47 49 53 54 54 54 55 55 52
68 73 70 68 63 64 61 60 59 56 53 51 50 47 43 41 39 39 41 50 60 63 71 64 57 54 49 43 39 37 38 40 43 44 47 48 49 49 50 51 52 52 53
64 72 65 67 65 64 67 59 61 58 55 50 46 48 47 48 46 33 40 40 41 54 60 64 58 52 43 39 35 33 36 38 42 43 44 47 48 49 50 51 51 50 50
67 72 68 70 65 67 66 62 61 52 57 54 28 38 54 53 51 51 46 37 46 41 44 52 63 57 52 40 36 34 34 35 38 41 44 48 50 52 52 53 52 52 51
66 72 71 73 70 69 66 67 62 56 55 52 56 56 59 58 56 54 53 50 44 42 45 45 46 52 51 43 37 38 36 32 37 43 49 52 53 53 53 52 52 52 51
62 69 74 70 72 70 69 70 64 66 62 61 66 68 74 69 63 58 58 50 51 46 45 44 44 40 45 51 54 44 37 41 44 46 49 51 52 51 52 51 53 52 52
63 64 72 73 76 74 75 75 69 65 64 66 62 70 75 74 65 65 64 58 61 60 55 51 45 43 46 46 54 52 51 52 50 48 51 51 51 51 50 51 52 54 53
71 67 67 72 74 70 72 75 66 65 64 70 73 59 62 62 66 64 65 63 60 55 62 58 52 45 45 54 54 66 65 60 53 47 49 50 52 52 52 52 53 54 54
76 79 71 74 72 71 67 65 62 61 64 76 78 84 80 80 68 65 65 58 61 58 59 65 58 58 45 45 58 69 66 59 51 47 47 49 52 54 53 54 54 56 55
77 79 71 76 79 85 91 91 88 70 78 81 85 86 87 81 62 69 68 66 61 56 52 58 62 55 55 55 46 64 62 60 55 49 45 47 51 53 54 55 57 58 57
80 85 78 81 85 91 92 93 86 86 89 89 92 95 92 62 55 56 55 60 60 52 54 54 57 56 45 59 63 65 61 66 61 52 44 47 49 50 51 56 59 60 60
83 84 84 86 90 89 84 82 87 93 93 96 97 92 80 64 58 56 54 62 71 65 57 54 52 60 58 57 65 61 56 62 63 58 51 50 50 46 49 52 57 58 60
80 85 90 90 84 82 82 88 91 94 96 96 96 85 69 68 64 61 59 60 68 79 69 56 54 46 50 56 62 62 52 54 57 61 62 59 51 47 48 51 52 53 59
82 89 88 82 80 81 86 88 93 93 95 91 80 70 73 71 70 66 55 61 62 71 77 57 53 51 49 32 55 53 54 56 60 66 68 68 63 51 49 52 50 54 59
87 82 78 80 77 77 84 86 89 90 90 84 78 85 80 76 71 65 63 61 59 60 61 62 56 52 55 56 46 56 59 58 57 60 65 65 69 61 57 54 53 56 59
84 75 74 73 74 83 85 88 90 80 83 83 87 84 84 68 72 64 62 62 64 63 68 72 65 63 60 57 57 58 46 32 45 48 57 61 67 68 66 65 61 62 61
90 84 78 79 84 84 84 83 84 87 84 83 86 86 79 81 75 68 68 67 69 53 68 74 69 67 66 64 59 57 57 57 41 46 58 64 66 64 64 66 66 67 66
82 85 85 83 85 85 80 79 84 85 88 87 87 80 80 79 75 69 64 63 61 70 66 68 68 67 71 64 64 62 62 61 53 28 42 49 56 58 66 69 67 66 68
80 80 84 85 84 80 78 77 82 90 86 82 83 77 77 76 79 75 62 68 71 74 76 79 77 73 69 70 66 63 60 57 57 55 54 56 58 58 56 56 56 61 62
77 79 81 81 81 68 84 91 87 82 76 84 91 84 80 82 80 80 78 76 70 70 70 72 71 74 71 74 76 75 65 64 64 57 57 65 57 58 59 62 56 55 60
74 75 76 78 86 90 94 94 90 87 88 90 90 87 84 74 77 69 70 75 80 81 79 69 70 71 74 70 84 72 66 63 67 61 60 66 64 60 59 34 58 60 66
78 79 77 76 78 75 94 93 94 91 94 92 91 92 92 86 68 66 69 70 63 61 61 66 80 74 72 69 82 68 71 71 64 62 59 66 67 70 62 60 57 60 70
74 74 67 68 68 88 92 93 93 95 91 84 68 69 72 72 85 88 87 92 88 77 59 69 71 73 75 72 80 81 86 88 90 65 63 67 66 68 68 70 68 58 70
71 71 84 88 89 86 91 90 84 91 92 94 81 70 75 77 78 78 82 82 81 81 87 89 86 74 79 78 75 64 70 81 88 86 66 70 70 71 82 66 72 71 80

GFSMA_sfc_rhum_039.txt.gz
RH
77 73 76 69 67 64 57 70 60 55 53 51 48 43 41 52 66 79 94 79 75 70 64 65 62 60 56 58 55 52 46 47 48 48 48 49 49 51 53 51 49 51 51
82 79 86 71 68 67 68 64 60 59 56 49 43 42 43 44 67 76 85 90 83 78 70 66 61 58 55 53 50 46 47 47 46 47 48 50 54 55 55 55 55 53 52
80 87 86 76 72 66 64 67 63 61 60 51 43 43 41 44 50 66 81 86 86 80 76 70 62 57 53 49 48 45 42 42 44 46 48 50 51 50 51 52 53 53 54
70 76 70 73 71 71 64 60 62 58 55 52 51 50 50 45 42 52 71 78 79 77 76 71 62 57 54 50 43 38 38 42 43 47 46 47 49 51 52 52 52 52 52
70 77 74 78 71 67 69 62 65 62 61 59 52 55 53 54 47 38 47 71 75 77 75 71 69 64 50 42 37 35 36 39 41 42 44 48 51 53 53 53 52 53 52
75 80 77 76 70 69 71 70 65 64 59 54 36 46 53 55 58 55 46 43 55 67 71 66 72 66 57 44 38 35 36 37 37 40 46 51 53 54 53 52 53 52 52
82 87 83 78 67 73 72 67 70 55 57 59 58 62 63 63 59 59 58 52 52 49 59 59 66 62 61 48 41 39 39 36 36 42 45 48 50 51 50 51 51 51 53
84 84 86 78 75 76 78 76 64 68 62 63 62 78 76 72 70 61 65 57 57 52 50 47 51 54 56 59 55 45 42 38 44 45 45 47 48 49 51 51 52 53 53
67 82 84 81 80 81 84 81 71 62 66 74 68 73 79 85 77 73 63 64 60 62 58 55 50 47 52 62 56 56 54 51 50 49 48 47 48 50 52 53 53 53 54
84 81 84 80 79 82 82 78 67 66 68 66 73 63 70 67 72 75 62 63 65 59 63 64 59 52 51 58 64 68 66 67 57 53 48 48 48 50 53 53 54 54 55
79 84 89 89 85 83 80 75 73 75 87 92 85 79 83 85 76 79 73 62 73 67 67 67 65 64 54 60 77 74 73 72 62 54 51 48 47 48 51 53 53 54 56
89 91 83 90 89 85 86 87 86 88 93 87 90 89 88 92 90 86 78 73 66 64 67 72 74 68 64 60 65 74 76 74 65 57 52 48 47 47 49 51 52 56 57
97 94 92 93 88 88 88 86 93 93 90 92 91 95 96 95 90 80 67 69 64 62 55 66 73 66 52 66 69 76 75 74 69 61 54 49 48 47 48 48 51 54 56
93 96 90 90 89 94 96 95 95 94 92 93 94 97 97 94 86 62 57 62 74 72 66 54 56 63 67 65 79 77 71 74 74 70 61 54 51 49 46 45 48 50 51
95 95 92 91 96 96 95 94 93 92 92 94 96 94 96 87 73 66 63 66 75 85 79 62 56 50 61 72 77 76 72 72 73 73 69 64 56 51 47 46 47 48 48
94 96 97 96 96 95 93 89 90 92 92 96 94 95 87 82 80 73 69 72 73 80 84 71 64 59 56 45 65 66 58 66 70 74 74 73 69 60 52 48 49 50 48
93 94 95 95 91 92 90 86 89 92 90 93 91 87 83 84 82 80 84 73 67 67 77 72 69 61 60 61 54 69 60 67 66 70 70 71 72 72 68 62 58 54 51
91 92 92 89 85 85 88 88 90 87 89 92 91 91 84 76 85 84 83 82 72 69 74 76 76 72 67 66 65 67 54 45 56 62 68 68 69 73 73 70 68 67 62
92 84 82 83 81 88 88 89 86 89 91 90 89 90 84 80 84 94 88 82 72 59 71 85 81 81 79 73 67 63 61 63 46 53 66 65 67 70 76 75 73 72 71
94 95 86 84 87 89 85 84 87 91 92 91 90 84 78 82 89 87 81 85 78 81 81 77 75 78 85 74 76 73 76 74 61 37 47 50 63 65 70 73 75 74 73
88 87 89 90 89 87 85 88 91 93 88 89 85 79 79 86 89 88 79 81 82 80 79 78 89 89 86 86 82 69 78 65 66 68 58 57 59 61 62 63 61 63 65
83 85 88 91 93 83 95 92 89 87 80 81 89 90 88 86 86 90 90 90 90 91 89 89 85 85 78 84 82 82 82 84 71 68 64 59 60 65 61 66 60 66 63
89 92 93 92 93 90 92 92 90 90 93 92 92 93 86 76 89 90 85 86 85 82 85 84 83 77 78 75 80 85 92 81 73 72 63 67 70 68 66 44 61 64 66
90 92 92 94 94 92 92 90 92 93 94 93 92 93 95 91 94 83 82 84 80 78 77 76 86 85 84 81 83 79 80 81 85 74 72 60 74 72 68 72 65 65 63
87 87 84 88 91 93 94 95 94 95 92 86 76 79 79 81 81 79 81 82 72 61 49 57 63 71 76 75 81 85 95 92 96 72 72 59 75 74 76 76 70 62 66
85 83 88 88 94 95 94 90 88 96 90 91 80 77 79 79 78 74 76 80 84 78 76 77 77 74 74 75 77 82 82 96 97 90 74 65 74 79 80 73 71 75 78

GFSMA_sfc_rhum_042.txt.gz
RH
82 82 79 73 69 66 61 71 65 58 54 49 47 50 61 65 71 80 89 72 77 70 65 64 62 58 59 59 55 50 48 50 49 49 50 52 58 58 57 56 54 53 53
81 78 83 72 70 69 62 70 62 60 53 46 45 47 55 67 70 81 90 93 83 78 70 65 62 58 55 57 52 48 50 48 47 48 50 53 52 53 53 54 55 54 54
86 87 92 82 73 70 71 68 66 65 59 48 45 45 50 65 70 77 86 91 92 83 78 72 63 60 57 53 50 48 45 44 45 47 49 49 49 52 53 54 54 54 53
83 88 86 84 79 77 74 72 68 65 63 54 51 54 50 51 63 74 82 86 87 83 81 75 70 59 55 53 50 44 41 43 44 47 45 48 50 52 54 54 54 53 53
78 82 78 83 79 78 73 67 68 65 62 60 53 57 57 54 52 60 76 82 84 83 83 76 73 69 61 54 45 38 40 41 43 42 44 49 51 52 52 53 53 53 53
78 85 81 82 79 75 74 70 67 72 65 62 41 49 60 61 60 64 67 71 82 79 79 79 84 77 66 50 43 40 39 42 42 40 46 46 47 48 48 51 52 52 52
84 87 86 87 79 67 68 70 72 64 68 67 61 64 65 69 66 65 60 67 69 74 77 76 75 68 69 60 46 41 41 42 41 42 46 44 45 45 47 50 51 52 53
87 87 88 86 76 76 78 77 70 70 64 69 63 78 74 76 74 68 69 60 62 62 64 60 62 61 65 67 59 46 45 45 44 48 48 48 47 47 48 49 51 52 54
87 86 89 85 78 75 79 80 72 64 67 75 72 71 87 85 77 76 72 70 60 66 63 58 56 57 57 63 61 59 60 55 48 53 53 52 48 48 49 50 51 53 54
86 84 88 85 81 81 86 86 74 70 66 68 71 65 72 72 71 73 71 67 64 61 66 68 62 55 53 62 62 68 72 67 60 55 55 53 50 49 49 50 52 54 53
83 80 87 91 86 87 92 91 83 77 85 88 87 84 82 84 74 80 82 64 65 67 65 68 68 67 56 60 67 72 74 71 70 59 57 55 53 51 49 50 51 52 54
90 91 89 92 91 92 94 92 90 86 91 88 88 86 87 89 92 90 86 77 68 62 73 76 78 74 70 67 61 68 76 75 73 65 59 56 54 52 51 51 50 50 52
97 95 92 95 95 92 93 93 89 90 93 90 91 88 92 93 93 85 80 81 72 60 62 69 74 74 63 73 73 74 76 79 76 71 62 58 55 53 52 50 50 48 50
87 94 95 93 93 92 92 91 89 91 91 94 91 92 96 95 92 82 72 76 74 70 70 56 62 74 76 71 77 80 79 82 79 74 70 65 59 56 53 52 48 46 48
88 95 95 97 96 95 94 94 95 92 92 93 92 92 94 95 93 85 72 71 75 82 75 67 61 56 69 73 73 85 88 82 80 76 75 72 67 59 56 54 49 47 46
97 97 98 97 96 96 96 95 95 93 91 94 92 93 95 94 88 83 83 86 75 79 84 78 69 65 61 51 68 85 85 77 81 77 78 75 72 69 65 58 52 48 47
98 98 97 96 96 95 94 91 91 92 90 93 94 94 91 86 90 90 90 90 85 75 79 78 77 68 66 64 59 87 82 76 72 79 77 74 74 73 72 69 65 58 53
98 97 96 96 91 90 91 90 92 91 91 90 94 92 88 80 86 87 89 89 86 79 77 78 79 78 74 69 70 73 68 53 58 64 77 74 75 75 73 72 70 69 67
97 94 95 94 93 92 92 91 90 91 89 90 91 89 89 88 86 90 92 92 84 77 88 91 81 86 85 80 76 70 69 67 54 60 67 75 73 70 70 72 74 73 73
96 96 94 92 91 92 88 88 88 90 92 92 89 86 85 80 83 91 87 88 82 87 86 86 85 88 93 85 89 83 80 76 69 56 62 59 67 67 71 76 77 77 77
96 94 96 95 92 90 88 90 90 93 93 94 91 82 81 83 90 91 88 93 95 95 94 92 93 92 85 86 92 91 88 81 78 83 74 72 71 67 60 69 68 76 78
94 93 94 93 94 89 97 96 92 91 88 89 89 90 85 87 89 92 86 85 88 95 95 97 95 95 91 93 91 94 89 89 91 76 77 71 63 58 56 69 66 72 68
89 92 95 95 94 94 96 96 94 90 89 93 92 89 88 82 82 76 83 82 83 82 86 94 95 90 92 84 87 91 96 98 97 81 81 74 80 62 66 55 70 74 72
91 96 96 95 93 91 95 93 93 94 95 95 92 86 80 78 84 84 83 82 76 72 64 55 71 72 73 70 79 78 80 79 75 82 88 86 71 67 63 62 69 69 70
93 94 94 94 94 98 92 94 94 97 91 86 72 72 74 81 74 72 77 78 76 76 64 69 72 78 81 82 81 86 92 90 89 73 81 81 73 75 84 73 72 69 72
89 89 95 94 96 99 96 94 91 88 82 78 77 73 72 76 72 66 79 87 91 88 87 82 78 84 84 84 81 86 88 96 93 92 83 90 84 94 93 77 78 76 80

GFSMA_sfc_rhum_045.txt.gz
RH
88 90 85 78 71 68 67 73 66 59 54 55 60 62 68 73 75 80 86 80 78 70 66 63 61 61 60 58 55 50 51 50 50 50 54 57 56 56 57 57 56 56 56
82 79 85 72 72 63 74 71 66 63 56 51 56 61 63 65 69 74 83 90 82 78 72 65 63 59 59 58 53 50 51 49 47 50 52 53 54 56 57 56 56 55 55
83 85 87 77 70 68 73 72 70 66 57 48 51 59 66 67 72 77 88 96 93 84 79 74 65 59 59 59 52 51 49 46 45 50 50 50 53 55 56 55 55 54 55
78 85 84 77 76 77 77 75 73 72 65 55 54 56 67 72 71 79 90 95 96 91 85 79 74 66 60 57 54 50 46 46 45 48 47 50 52 53 53 52 52 53 54
79 85 88 85 82 81 82 74 75 71 69 62 55 61 61 68 72 70 86 90 92 92 91 81 77 73 66 58 55 47 42 44 46 45 47 50 49 47 47 48 50 52 53
85 91 88 89 84 82 80 78 72 74 69 65 45 54 65 65 63 81 83 81 91 86 86 86 88 83 73 62 51 44 43 44 46 45 48 49 45 43 44 46 48 50 52
86 91 90 90 87 80 74 72 74 71 72 68 62 65 66 69 68 68 75 86 85 85 86 86 91 85 81 66 50 47 45 45 47 47 49 49 47 44 44 46 48 50 51
85 90 89 92 88 81 80 78 72 72 70 71 65 74 68 70 77 66 67 70 80 83 80 78 78 73 72 76 66 52 47 46 48 49 51 52 51 49 48 47 49 50 52
90 90 91 92 90 85 82 81 78 68 69 74 73 65 88 76 73 68 70 66 63 68 70 66 65 65 65 73 68 65 63 60 50 50 53 55 55 53 51 50 49 50 52
92 92 92 91 90 88 88 81 77 74 72 71 71 71 70 73 72 68 73 71 66 59 63 68 62 64 63 67 66 71 72 72 66 52 54 57 57 56 54 51 49 51 52
91 93 93 94 93 91 90 92 93 90 88 90 86 88 82 81 74 78 83 70 70 67 65 64 61 62 60 63 68 68 74 76 71 60 54 58 58 58 57 53 51 52 52
94 94 92 94 94 94 93 92 92 92 86 92 91 85 87 86 91 86 89 86 69 66 64 69 69 68 73 69 58 64 73 76 74 68 62 59 60 59 58 55 53 53 52
94 93 94 95 95 94 96 96 95 93 90 88 86 81 87 86 87 85 81 91 84 73 64 62 79 82 69 73 64 68 70 77 75 71 69 67 64 61 58 56 54 54 52
85 91 94 92 91 97 98 98 97 96 94 93 93 89 89 92 90 86 83 87 87 75 68 62 67 72 72 73 71 74 69 79 81 76 73 72 71 68 62 58 57 56 54
86 92 94 93 95 98 96 97 97 96 94 90 90 90 90 96 95 93 79 71 78 87 81 67 64 58 64 75 78 84 89 80 85 83 79 75 74 72 70 67 60 58 55
96 99 99 98 99 99 97 98 98 94 91 93 94 95 94 96 98 90 86 87 83 87 94 71 66 71 64 56 64 84 88 83 84 86 84 80 76 74 72 71 68 63 57
97 98 98 99 99 99 99 97 96 95 90 95 95 94 96 94 96 92 93 91 90 88 94 85 70 65 68 70 64 73 88 94 92 85 88 84 79 75 74 73 72 70 67
98 98 98 99 98 98 97 95 95 94 92 96 96 97 95 88 91 90 92 90 92 89 90 89 79 73 69 73 74 76 65 69 81 74 80 85 84 80 78 77 77 77 76
95 96 96 96 94 96 96 94 92 95 96 95 95 95 92 88 92 93 91 93 88 77 86 91 88 89 92 91 87 84 82 84 67 65 72 73 76 80 82 79 77 78 75
93 91 96 95 96 95 94 95 95 97 96 95 93 89 87 87 87 90 89 91 88 93 95 96 94 92 93 92 93 88 83 83 85 73 71 71 72 73 76 76 76 79 76
95 96 98 98 97 96 95 95 94 95 94 95 92 87 85 86 94 93 90 95 94 98 98 97 95 93 96 96 95 94 95 92 87 90 84 80 82 76 72 74 77 77 75
99 98 98 98 98 97 100 96 94 94 93 94 95 90 90 94 91 88 86 84 88 93 93 97 96 95 92 95 95 88 88 86 78 70 88 80 80 76 75 74 71 75 76
97 98 98 97 98 97 97 97 96 93 95 96 94 90 86 80 80 77 78 75 74 71 79 89 93 91 91 87 90 88 87 88 88 76 78 82 70 76 76 58 68 73 74
97 98 98 96 96 97 98 98 96 94 94 93 91 88 80 84 78 76 70 72 70 70 68 66 79 83 83 81 89 89 92 85 79 78 83 90 73 75 68 70 68 72 77
93 95 93 93 93 99 97 96 94 94 86 80 73 74 74 76 73 67 71 72 76 77 68 68 64 65 67 67 70 85 82 86 86 75 78 86 78 80 78 83 85 76 78
97 95 98 98 98 99 95 95 94 92 86 81 69 68 73 71 66 63 81 90 92 89 84 83 82 75 70 74 70 82 77 87 82 80 73 84 79 80 90 100 96 94 99

GFSMA_sfc_rhum_048.txt.gz
RH
81 81 83 77 72 69 68 66 61 62 72 73 76 79 82 85 85 86 90 82 79 69 66 64 64 61 61 58 55 54 55 53 53 55 58 56 56 56 57 57 56 56 56
81 79 84 72 69 67 72 63 57 60 66 66 70 71 73 75 77 82 85 88 84 78 72 64 63 63 62 59 54 55 54 52 51 54 55 54 56 57 57 56 54 54 54
80 84 85 73 68 74 70 68 66 62 62 57 64 66 66 68 71 74 83 89 89 85 80 74 64 61 61 60 55 55 53 50 50 53 51 53 55 55 54 52 51 52 53
80 82 76 73 74 77 75 70 69 64 62 60 61 68 72 72 72 79 87 93 93 88 85 79 75 67 62 61 56 54 51 49 49 51 52 54 54 51 47 46 48 49 50
78 76 74 78 76 77 81 71 76 68 64 60 57 64 71 77 73 71 82 89 93 92 92 85 80 77 71 61 57 54 49 49 50 49 52 54 52 46 43 42 44 47 49
81 84 83 84 82 82 85 78 76 75 69 64 46 57 69 68 70 80 81 83 91 92 91 90 87 81 76 67 58 53 47 49 50 50 51 53 49 45 42 42 44 46 48
87 91 91 93 91 87 86 83 78 74 75 71 65 66 64 66 67 67 80 85 84 88 89 88 85 83 81 75 63 52 48 49 50 52 51 54 51 48 46 45 46 47 48
85 91 94 95 94 93 88 85 78 79 74 71 65 70 66 65 76 72 72 74 85 82 84 81 82 82 78 77 74 56 51 49 49 51 52 53 54 53 51 49 48 48 49
84 90 91 93 94 90 89 87 81 74 76 79 73 68 78 69 72 74 76 70 76 82 76 74 74 74 71 70 71 70 69 66 52 51 53 53 57 56 55 54 53 50 50
84 90 93 94 94 93 91 87 82 78 77 77 76 69 76 70 72 72 76 78 69 64 70 75 70 68 65 64 66 73 76 76 69 54 52 54 58 60 59 57 56 54 52
85 90 93 94 95 95 93 93 92 88 88 90 87 88 84 81 74 72 71 76 77 75 66 71 68 69 62 61 62 67 78 78 75 67 56 54 56 60 61 60 59 56 54
94 92 93 95 96 96 95 94 94 93 92 92 89 90 85 87 85 82 78 78 74 72 70 74 72 67 68 66 60 66 73 79 76 72 68 62 56 57 60 60 61 59 57
91 93 95 96 97 96 96 96 97 96 95 92 91 88 88 85 85 82 83 88 84 77 68 65 72 74 70 77 69 70 70 77 79 75 72 70 66 63 61 60 61 60 58
93 91 94 95 94 94 96 97 98 97 97 96 94 94 87 84 87 86 83 88 90 82 72 69 62 69 77 76 75 75 71 78 81 80 76 73 72 69 69 70 65 62 59
93 92 93 94 95 96 96 98 98 99 99 98 98 94 86 86 90 90 81 80 85 92 82 71 66 63 62 64 68 76 79 79 83 84 84 80 76 73 72 73 73 71 64
92 92 94 96 96 96 97 98 97 96 97 97 96 93 92 94 96 96 92 88 86 85 90 75 72 66 62 57 63 72 76 75 84 86 88 88 85 80 76 75 75 73 71
89 91 93 95 97 98 98 98 99 99 98 98 95 94 94 96 98 97 96 92 91 88 93 89 77 69 67 69 66 67 70 79 82 86 87 88 90 88 85 80 78 77 75
89 88 91 95 95 96 98 98 99 98 98 98 95 94 97 95 98 96 95 96 93 91 93 95 85 78 73 72 76 79 68 62 77 77 85 85 84 88 89 87 84 81 79
86 89 89 94 96 98 98 98 97 96 96 94 95 95 97 95 98 97 94 91 91 79 88 91 91 86 87 86 85 84 83 85 74 72 79 81 80 80 81 86 87 84 81
89 90 93 92 95 97 97 98 97 97 97 97 97 95 95 93 92 91 90 91 88 92 93 96 92 91 93 89 90 90 81 80 77 65 72 78 81 78 79 80 80 82 83
92 90 94 97 98 98 98 98 97 98 98 99 97 94 92 88 90 88 87 94 92 93 89 88 86 90 86 88 84 90 78 74 70 66 64 75 78 78 76 75 71 73 75
92 95 98 98 98 98 100 100 98 98 96 97 98 93 94 94 92 90 88 86 84 83 83 85 87 80 77 82 86 83 85 81 72 72 79 72 66 66 64 64 67 72 75
99 99 99 99 99 99 100 99 99 96 97 97 94 95 90 84 84 80 82 75 71 72 71 77 74 76 80 75 83 88 87 88 82 70 72 78 67 73 67 57 68 72 75
99 99 99 99 99 99 99 99 98 97 96 95 91 89 88 86 81 76 67 61 61 65 67 65 73 79 81 79 87 83 86 80 73 69 72 84 66 69 65 66 70 74 75
99 99 99 99 98 99 99 97 95 91 85 84 81 83 82 80 76 68 61 63 72 74 69 65 62 62 63 63 65 81 82 88 86 55 54 68 62 68 66 62 61 73 79
98 96 98 98 98 98 97 94 88 87 88 82 78 80 79 68 66 68 78 79 79 79 70 67 63 63 62 66 65 67 72 83 81 76 66 73 62 71 77 60 81 83 87

GFSMA_sfc_rhum_051.txt.gz
RH
62 52 53 45 47 52 54 55 57 56 58 58 57 58 60 61 61 53 52 79 78 68 62 60 60 60 59 57 55 56 54 54 56 59 58 58 58 58 58 57 57 55 54
66 52 51 46 49 44 47 49 52 54 52 53 59 58 60 59 61 62 54 60 82 76 70 65 64 63 60 57 55 55 54 52 54 55 56 58 58 57 56 54 54 53 53
66 59 50 48 49 48 48 46 52 52 52 51 54 56 55 59 57 63 61 57 62 84 78 73 66 66 63 60 56 57 54 51 52 54 54 56 56 54 51 50 49 50 50
63 62 53 49 50 51 47 44 44 48 48 48 50 48 46 47 50 53 57 56 53 49 76 79 75 70 65 62 58 57 54 51 52 52 53 56 54 50 45 43 45 46 48
59 56 49 51 58 56 55 49 49 45 48 46 44 45 47 45 49 41 50 57 62 62 58 80 82 78 73 65 60 57 55 53 52 52 54 55 53 47 43 41 42 44 45
60 60 54 59 54 56 56 52 52 49 45 42 31 43 51 48 47 48 48 54 64 69 67 63 60 60 80 73 63 58 54 54 53 54 54 56 54 49 46 43 43 44 45
61 66 58 63 58 56 59 62 56 55 52 50 44 43 43 48 52 47 51 50 60 62 63 62 59 52 68 78 69 58 53 50 53 54 54 55 56 52 50 48 47 47 47
64 68 68 67 66 65 67 70 64 57 51 51 45 45 47 44 46 46 46 51 59 56 54 61 62 73 61 59 69 65 55 51 52 54 55 55 57 56 54 53 52 52 50
60 63 72 74 82 76 64 70 67 63 56 56 52 46 53 52 45 44 50 50 57 52 50 56 61 64 65 66 67 70 75 71 57 52 54 56 57 59 58 57 56 56 54
72 68 69 75 77 75 76 73 67 64 61 59 54 47 56 50 52 58 55 51 49 53 56 56 53 58 60 57 67 72 75 79 76 61 52 53 56 58 60 61 60 59 58
64 66 70 74 75 76 77 78 80 77 72 67 65 60 59 62 67 83 71 66 62 48 45 56 64 52 53 55 52 63 79 80 77 73 62 56 53 56 59 62 62 61 61
68 70 66 73 74 79 81 81 81 80 78 73 69 65 61 79 81 79 84 65 69 49 63 62 55 57 50 54 63 69 75 81 80 74 71 65 59 54 54 58 64 64 64
72 72 71 75 75 75 77 80 83 83 82 81 76 74 71 73 83 76 70 72 64 73 64 59 65 66 61 62 62 72 71 80 80 78 75 72 69 68 65 59 56 57 62
67 69 74 72 71 73 75 79 82 83 83 86 84 83 90 92 91 88 73 83 94 80 80 61 58 70 70 66 72 74 59 80 82 83 82 80 77 73 71 70 69 67 63
67 71 72 72 74 75 77 80 84 84 87 89 92 92 96 94 94 88 81 79 77 93 92 79 69 60 65 64 55 56 73 73 79 82 84 84 83 80 79 77 75 73 72
71 70 71 72 73 76 79 82 85 85 89 95 94 97 96 93 89 91 86 86 86 85 93 73 64 70 64 48 58 59 60 69 76 83 85 84 86 84 84 84 81 79 78
70 70 69 71 73 74 78 85 84 85 98 96 93 98 94 92 96 96 93 89 90 88 91 83 73 74 66 61 61 59 58 56 52 76 82 84 85 86 87 87 87 86 83
74 72 71 70 70 73 77 89 91 97 98 98 97 98 97 97 96 95 95 95 91 84 88 92 76 73 74 69 69 64 54 47 53 65 79 84 85 85 86 86 86 88 87
72 69 72 75 73 79 82 88 89 97 98 94 91 94 95 97 98 97 95 93 93 88 90 88 83 79 74 73 63 59 60 56 47 60 69 80 83 84 84 84 83 84 83
69 69 74 75 78 80 84 90 91 90 90 88 88 93 94 95 95 96 96 95 91 90 89 86 85 82 80 64 61 58 51 43 39 29 42 54 66 66 76 80 82 81 78
70 69 73 75 76 81 93 94 95 96 92 94 95 96 94 93 95 92 89 90 88 89 86 87 83 80 67 62 54 45 46 39 41 40 43 41 39 39 41 50 50 58 62
72 76 77 79 89 95 100 100 98 96 92 97 98 98 97 97 96 95 92 88 78 81 83 82 72 64 56 51 44 48 50 47 40 39 47 42 38 39 39 40 55 67 71
74 82 87 91 97 98 100 100 100 98 98 98 97 96 89 86 85 81 85 81 79 73 70 62 56 50 49 47 54 55 51 51 46 41 46 46 37 40 33 27 54 64 69
90 97 99 99 99 99 100 100 100 98 98 96 94 90 89 86 79 78 69 62 56 55 56 46 50 51 52 50 54 50 52 54 48 41 39 45 32 37 33 36 52 55 61
99 99 99 99 98 99 99 99 95 93 92 93 88 85 82 85 87 74 63 61 60 64 69 66 63 60 59 60 58 53 56 54 62 32 34 42 38 38 41 44 39 55 67
98 96 98 98 99 98 98 95 90 90 92 91 88 87 82 85 91 76 67 59 62 58 55 51 46 44 48 47 60 49 45 62 55 50 39 50 38 43 54 37 42 52 54

GFSMA_sfc_rhum_054.txt.gz
RH
53 44 45 43 43 41 44 43 41 42 41 39 41 43 43 42 43 36 44 78 76 67 62 61 60 60 59 58 58 57 56 57 59 58 58 58 58 58 57 56 55 55 54
52 43 41 36 37 40 40 38 38 37 35 36 41 41 43 43 44 43 39 53 81 75 69 63 62 60 59 57 57 56 55 55 57 57 57 58 58 56 54 53 52 52 52
58 53 36 34 35 35 38 36 39 35 33 33 40 41 40 43 41 45 41 42 56 82 77 72 66 64 61 58 57 57 55 54 56 56 58 58 56 52 49 48 47 48 48
56 50 36 35 33 35 34 36 38 36 35 33 37 37 36 38 42 43 41 41 42 44 74 79 76 71 66 62 58 59 57 53 55 55 57 58 55 49 45 44 43 44 45
46 41 36 39 44 36 36 35 36 36 36 33 33 34 34 32 36 32 39 45 46 41 41 80 81 80 75 68 62 59 58 55 55 56 56 58 56 50 46 44 42 42 43
50 44 38 44 43 38 40 39 40 36 34 32 24 30 34 33 33 34 36 34 38 46 44 46 56 58 81 76 67 61 59 58 55 58 57 58 58 54 50 47 45 46 46
50 46 38 46 43 42 43 49 44 44 37 36 32 34 35 39 41 34 34 35 39 43 47 46 45 42 54 80 75 63 60 58 58 58 58 59 60 58 54 51 49 49 49
48 47 44 45 44 41 52 55 53 47 40 40 38 37 43 38 36 37 34 37 43 39 40 48 45 43 40 43 56 73 62 58 55 58 59 60 60 61 58 55 53 52 53
46 44 50 47 49 45 49 58 57 55 48 49 47 43 47 48 38 36 42 36 42 42 42 39 43 42 44 42 51 62 78 74 63 55 57 59 61 61 62 60 59 58 57
55 46 49 53 55 50 51 53 52 56 55 50 48 42 47 44 43 48 39 41 53 45 46 39 38 43 44 44 55 64 78 80 77 67 59 55 57 61 62 62 63 62 61
55 50 52 58 60 57 61 62 62 64 55 66 53 48 51 47 51 52 54 48 52 58 52 41 41 40 48 43 44 54 79 82 81 75 68 62 55 54 57 62 65 65 65
67 64 56 64 67 64 63 70 67 68 66 61 64 55 55 52 51 52 53 55 60 80 80 61 57 47 48 42 53 70 81 85 84 78 73 67 63 59 56 55 55 60 66
73 72 67 61 60 63 60 59 67 67 68 67 68 63 56 54 57 54 58 74 71 84 87 77 50 56 43 53 51 72 76 81 82 80 76 71 70 65 63 60 59 57 56
52 63 59 57 57 55 57 58 56 59 62 67 68 65 58 59 66 73 83 92 97 94 89 71 56 69 79 68 72 76 58 80 83 83 81 79 77 74 74 72 69 66 63
45 54 56 56 54 54 56 59 58 59 60 66 65 66 68 70 76 84 86 92 92 96 92 88 86 73 70 70 78 71 62 71 79 82 82 81 80 77 77 77 76 74 71
57 57 62 63 59 58 59 60 60 59 59 63 63 70 75 79 87 91 94 94 94 94 96 87 73 63 68 56 73 66 64 68 75 80 82 82 82 80 80 80 78 76 75
58 58 57 59 58 58 57 58 61 60 63 67 74 79 80 81 89 94 96 96 96 95 98 95 74 74 80 79 70 73 58 53 51 80 80 83 84 85 85 84 82 80 78
60 59 57 56 54 52 52 56 60 60 61 66 73 86 91 96 98 98 96 96 94 94 93 95 88 84 84 82 75 69 60 44 42 67 73 77 80 82 83 84 84 85 85
59 57 54 56 54 53 53 62 68 63 65 66 75 90 92 91 96 95 97 97 95 94 90 92 89 87 76 80 72 67 60 53 42 60 65 69 72 75 80 83 81 77 79
59 57 56 55 56 52 56 57 60 67 67 68 72 83 80 84 89 97 98 97 96 95 94 93 87 86 80 78 74 68 61 50 42 25 35 46 56 53 62 69 76 78 72
58 56 56 55 56 56 56 59 61 68 72 84 90 87 79 85 96 93 93 94 92 94 93 90 87 79 78 74 76 58 48 42 34 31 30 32 30 29 33 57 54 61 65
57 57 57 57 60 59 85 98 89 85 84 91 98 96 94 98 97 97 96 94 88 88 85 82 74 78 75 66 57 51 43 39 35 26 38 35 31 32 31 31 51 58 64
58 60 59 59 61 62 100 100 100 87 96 97 98 98 97 95 94 92 94 89 83 81 77 68 71 69 63 54 47 45 42 40 38 32 35 36 33 33 27 19 53 58 58
62 66 68 72 77 75 100 100 100 99 99 99 97 95 95 95 89 85 77 68 62 58 54 46 51 50 49 43 43 39 42 42 41 36 34 38 28 30 30 28 48 54 59
77 90 91 96 99 99 100 100 98 98 98 97 92 91 90 90 92 83 68 63 64 68 78 69 65 63 60 58 54 41 47 46 58 34 28 33 34 35 33 34 34 57 58
96 96 97 98 99 98 99 97 94 94 97 96 93 96 94 89 85 79 71 71 80 72 59 56 55 56 52 49 60 47 38 51 49 46 32 42 35 33 42 32 36 40 43

GFSMA_sfc_rhum_057.txt.gz
RH
73 64 66 61 50 45 45 43 38 37 38 38 39 42 39 38 39 39 48 77 75 67 61 61 61 61 61 61 60 59 58 60 60 59 59 59 58 58 56 54 53 53 53
70 62 61 49 43 40 39 37 37 37 34 36 41 41 40 40 38 43 44 56 79 75 68 60 61 61 60 60 59 57 57 59 60 59 60 59 58 55 53 51 50 50 50
62 53 48 44 40 39 40 36 38 34 32 33 39 40 39 42 39 41 42 47 58 81 78 71 66 62 62 59 60 57 56 58 58 59 60 60 57 54 51 50 48 47 47
57 52 41 40 36 38 36 34 35 33 32 33 38 38 37 39 41 42 38 42 47 48 75 79 75 71 65 62 60 60 58 56 58 59 61 60 58 53 51 48 47 46 46
47 49 41 45 44 37 36 34 36 35 34 33 34 35 35 35 40 35 39 43 45 44 53 77 82 81 75 68 63 61 61 58 58 60 59 61 59 55 50 48 46 46 44
51 54 50 57 48 36 35 35 43 36 35 33 26 31 35 32 32 35 37 36 41 46 46 58 65 66 83 77 72 63 62 61 58 60 59 60 61 57 53 50 47 46 46
50 58 52 61 58 44 42 46 40 41 35 34 30 32 34 36 37 33 34 35 37 40 44 43 63 56 63 81 78 68 63 62 61 59 61 60 61 60 57 53 51 49 50
48 52 54 54 58 46 50 53 52 43 35 34 33 34 40 37 37 40 36 37 45 37 40 47 48 50 54 57 68 77 68 63 61 62 61 63 63 63 62 59 56 54 53
50 52 56 54 57 50 51 58 56 53 44 42 45 39 43 41 39 40 49 41 48 45 41 39 44 44 46 49 66 70 78 75 69 63 62 63 64 64 65 64 62 60 59
60 55 48 51 54 49 52 59 52 56 53 50 50 45 52 51 57 68 46 48 44 44 52 48 49 42 44 46 55 65 81 81 78 72 68 66 64 65 65 65 65 66 64
78 62 50 54 55 52 56 57 62 65 57 56 53 52 55 51 54 56 62 55 49 42 42 66 58 61 46 46 48 58 84 84 83 76 72 67 62 64 66 66 67 67 66
67 69 50 56 61 64 66 62 67 66 66 60 70 58 60 58 56 62 65 56 67 60 50 58 80 89 80 74 61 69 80 83 84 82 79 75 69 64 61 59 58 57 59
74 69 63 61 62 67 70 73 76 74 72 72 72 71 65 59 52 50 60 56 59 65 82 88 86 89 84 86 81 83 83 86 87 85 83 79 74 71 66 63 62 61 60
69 71 63 60 62 63 64 66 67 68 72 73 72 66 66 58 53 53 59 66 76 75 79 74 78 89 90 92 85 82 70 82 82 82 80 80 78 77 76 73 71 70 69
53 63 66 65 63 63 64 65 65 66 65 68 71 69 65 56 54 56 62 65 77 89 91 80 85 86 93 91 89 83 81 80 82 83 84 81 82 78 78 77 75 74 72
56 57 63 62 62 62 62 63 63 62 63 64 61 65 63 60 61 66 72 80 83 88 92 75 81 92 94 91 91 88 68 82 80 81 84 83 83 81 80 80 78 76 75
55 52 51 55 55 55 57 59 60 60 61 61 62 63 64 64 69 81 88 90 93 94 98 91 92 86 91 94 87 84 74 73 70 80 81 83 82 83 84 85 84 80 76
56 53 50 49 50 51 53 56 59 55 60 62 61 64 66 67 76 84 88 92 93 93 96 96 91 94 92 90 81 82 67 57 61 62 81 83 81 80 80 81 81 81 83
59 56 52 54 52 54 54 55 56 57 59 59 61 64 65 74 81 87 93 96 93 96 97 99 99 95 88 84 83 79 76 72 58 74 80 77 78 74 69 73 78 79 75
59 58 57 55 56 54 52 52 51 54 56 60 65 68 70 73 84 88 90 94 94 97 98 98 97 95 87 87 82 81 82 73 66 46 48 46 50 60 65 67 69 70 73
57 55 58 58 58 56 52 56 53 57 64 69 68 64 65 71 88 89 88 89 94 98 97 98 96 95 93 92 88 80 79 73 64 53 43 36 33 36 41 61 62 70 76
58 58 58 59 61 52 67 78 71 62 66 71 76 72 73 97 100 100 97 97 91 96 98 96 95 96 90 82 75 77 71 74 61 43 40 36 36 39 37 38 50 59 58
59 59 60 60 61 59 80 90 92 65 69 74 77 81 97 99 99 99 99 95 94 93 92 92 92 86 83 76 70 72 68 62 53 41 41 43 38 40 36 25 53 55 59
61 62 61 61 62 60 87 97 100 81 80 88 93 98 99 99 98 97 93 90 87 87 85 79 88 74 66 61 57 53 55 48 46 38 40 50 41 44 37 36 54 57 60
62 64 64 65 75 86 100 100 100 99 99 99 98 98 96 96 96 90 87 92 95 96 86 78 73 67 63 60 56 49 49 51 66 40 40 45 43 45 47 47 42 53 56
71 87 95 97 99 99 100 100 99 98 98 98 98 97 96 95 91 85 82 82 87 89 79 69 60 55 50 55 54 45 42 53 52 50 42 46 40 40 50 44 47 50 52

GFSMA_sfc_rhum_060.txt.gz
RH
92 88 79 69 62 63 64 61 59 53 57 54 58 56 54 49 58 62 76 78 73 67 62 62 62 63 62 61 60 61 62 60 60 60 61 60 59 58 56 55 55 55 54
92 84 82 70 61 59 58 55 55 58 57 56 60 57 53 48 54 62 69 81 79 74 68 62 62 62 62 62 60 60 61 61 60 60 60 59 58 56 55 53 52 52 51
80 77 72 67 60 55 56 56 56 58 58 52 59 60 59 56 51 58 62 69 80 81 76 69 66 63 62 62 61 60 59 62 61 60 60 60 58 55 54 52 50 49 48
70 75 71 67 56 52 54 60 59 58 60 60 63 63 62 59 58 54 58 62 67 65 81 80 75 71 66 62 62 60 59 60 61 62 62 60 58 55 53 50 48 48 47
68 77 86 83 63 63 64 58 62 58 61 60 59 63 63 62 63 50 55 56 64 64 68 80 83 80 75 69 63 62 61 58 60 61 62 62 60 57 53 51 48 48 47
65 75 64 69 65 61 62 62 61 61 60 59 38 50 62 62 63 66 60 55 60 59 66 68 78 78 83 77 71 64 63 62 59 61 61 62 63 60 56 52 50 49 48
64 65 66 65 63 59 57 61 62 62 64 60 59 65 62 59 63 60 62 62 60 62 70 67 75 74 77 84 79 69 65 63 63 60 62 62 63 64 61 57 54 52 50
60 62 66 66 66 68 65 65 59 64 61 62 61 62 69 65 61 60 62 58 63 60 59 69 72 73 70 76 78 79 72 66 63 64 63 64 64 64 65 63 59 57 55
55 56 68 69 71 73 71 70 68 67 65 66 60 60 66 69 60 61 63 67 62 71 62 62 65 67 69 73 77 80 82 80 72 68 69 69 68 66 66 66 65 63 61
61 55 60 66 72 71 73 75 69 74 74 68 66 54 71 78 83 82 67 66 68 64 68 68 63 65 58 64 74 79 86 86 81 75 72 72 72 69 67 68 68 68 67
76 62 65 72 70 66 67 76 79 77 77 85 70 78 77 79 79 90 88 76 69 66 68 75 76 72 65 63 64 73 82 87 85 79 75 73 72 72 74 72 70 69 70
78 79 64 70 73 76 72 78 82 82 78 83 86 82 81 80 81 86 91 86 85 74 67 73 83 84 79 76 73 75 86 88 85 83 79 76 74 72 70 69 67 64 66
68 84 78 76 73 71 76 81 85 85 86 85 82 86 86 82 76 77 90 87 88 90 87 86 88 90 82 93 89 85 85 89 89 88 84 82 80 78 76 71 65 63 62
64 68 77 72 73 70 71 80 85 83 80 86 83 75 84 84 78 74 75 91 93 94 95 89 95 92 93 90 88 91 90 86 90 90 88 85 83 82 81 78 74 71 69
63 75 74 75 70 69 73 79 82 82 85 80 77 85 79 74 85 74 77 88 87 91 92 94 92 92 90 91 92 94 92 92 90 86 86 85 81 81 82 81 78 76 72
67 67 76 76 72 69 73 77 82 78 78 78 79 80 78 74 74 78 75 82 89 88 91 91 93 95 94 97 96 96 95 93 92 88 87 86 84 83 84 84 83 80 76
67 67 66 69 71 74 74 74 75 73 76 76 74 75 77 77 79 82 86 87 88 94 94 87 96 96 99 98 96 96 93 91 85 87 87 89 87 86 84 84 84 83 80
67 65 63 63 66 67 68 70 73 67 72 74 74 76 74 70 79 78 84 92 94 94 93 93 93 98 97 96 94 98 89 75 75 84 86 85 87 86 85 85 83 82 82
67 65 61 60 59 63 64 64 65 66 67 66 66 68 69 72 76 79 81 87 93 94 94 97 94 97 96 95 95 92 89 78 66 70 83 88 87 86 85 82 75 73 76
67 65 64 62 60 56 56 57 57 62 64 63 65 66 66 70 73 77 85 90 93 97 97 98 98 98 96 95 92 94 93 86 80 59 73 73 78 82 79 70 71 71 72
68 66 66 64 62 60 55 58 58 63 66 67 67 65 66 72 80 80 86 91 95 97 98 98 98 99 99 99 97 95 96 96 90 80 70 58 56 57 63 73 65 71 71
69 69 69 69 69 61 70 79 73 68 66 67 69 69 74 89 88 91 96 96 93 96 98 98 98 98 96 97 98 98 98 96 93 69 62 59 50 56 52 53 56 65 71
70 71 70 70 71 70 82 84 85 67 70 73 74 78 85 92 99 98 99 97 97 98 98 95 98 98 98 98 96 97 93 85 77 60 58 61 55 58 51 33 60 54 53
71 72 72 73 73 69 93 88 91 76 74 75 85 89 85 99 99 98 98 97 97 97 97 95 96 98 96 88 83 73 64 60 61 54 51 71 57 66 59 56 58 65 69
71 73 72 75 76 75 100 91 90 94 98 99 98 98 99 99 99 96 96 96 97 98 98 96 94 94 90 70 64 73 79 82 92 60 57 66 65 69 68 71 62 56 64
72 85 96 97 99 99 100 100 99 99 99 98 97 98 98 97 96 93 92 90 93 96 94 86 70 64 64 65 60 60 63 85 83 78 63 70 64 65 84 66 71 69 74

GFSMA_sfc_rhum_063.txt.gz
RH
94 94 86 82 79 84 83 75 73 65 58 57 61 56 60 67 68 71 81 80 76 68 63 64 65 65 62 62 64 64 61 60 61 61 62 61 60 58 57 58 58 57 57
93 90 76 71 76 74 70 63 64 67 61 61 65 56 60 66 68 74 78 78 79 75 67 64 64 64 63 62 62 64 62 61 60 60 60 60 59 56 55 54 54 54 53
86 88 69 67 69 68 59 66 68 64 68 64 64 62 58 67 70 73 76 83 78 81 78 71 66 64 64 63 62 62 63 63 61 60 60 59 57 56 54 53 51 50 50
82 88 78 65 68 63 61 62 63 62 69 69 73 70 63 65 69 72 72 74 79 73 81 80 75 71 66 65 63 62 61 63 63 62 62 60 59 56 54 52 51 49 49
76 85 85 79 67 66 68 62 64 61 68 72 68 71 72 71 69 63 70 73 79 76 79 83 82 81 75 69 65 63 62 61 64 63 64 64 62 59 56 54 51 50 49
78 85 82 86 80 77 72 61 59 66 64 65 49 60 74 74 72 73 71 68 74 74 74 74 80 77 84 77 72 66 65 63 62 63 65 65 64 63 59 56 54 52 51
73 73 70 74 77 81 62 56 65 63 69 69 68 76 73 73 73 71 76 70 71 70 75 75 78 78 79 82 79 69 66 66 65 64 65 65 66 66 64 61 57 55 54
66 70 69 74 71 77 76 66 64 68 65 70 65 70 72 66 70 70 74 70 75 69 71 72 77 76 77 79 80 79 72 68 66 66 65 67 67 67 67 66 63 60 58
61 62 64 70 70 70 71 67 64 60 63 66 60 66 77 73 74 72 73 74 70 76 76 73 76 76 77 79 80 82 83 80 75 72 72 72 73 69 68 69 68 66 64
67 64 64 66 69 78 79 72 61 68 68 66 72 63 72 82 86 86 75 76 72 68 76 81 80 78 77 78 81 82 86 87 83 78 75 74 74 74 73 70 70 70 69
71 65 73 72 77 79 83 80 76 62 79 83 71 70 80 88 87 92 90 82 75 78 73 68 70 75 74 75 76 79 88 89 87 82 79 76 76 76 76 76 75 72 71
72 73 69 76 75 76 79 88 85 73 74 85 89 86 81 79 86 92 93 91 86 80 69 71 73 73 79 76 72 80 87 89 90 86 83 80 77 76 78 77 76 73 74
83 85 76 83 87 76 76 82 88 85 83 86 90 88 90 88 85 86 93 92 91 90 88 87 72 75 77 87 80 84 86 89 89 89 86 84 81 79 77 77 75 73 71
73 74 79 72 83 83 85 86 87 82 82 89 88 93 85 85 86 83 85 92 94 96 97 85 94 87 87 91 86 89 83 92 93 95 96 95 93 91 90 84 82 78 72
63 77 79 78 75 73 81 82 85 87 91 91 94 90 87 78 85 76 81 84 82 89 92 94 94 94 87 91 91 95 95 93 94 95 96 97 95 93 91 89 82 80 75
62 61 79 83 78 75 79 82 81 83 90 89 85 88 87 82 84 89 78 84 92 84 86 90 92 93 94 96 95 95 94 94 96 96 96 95 92 87 85 84 84 83 80
65 64 73 80 81 80 72 76 78 77 83 79 80 83 83 78 82 84 92 84 85 86 88 78 93 95 96 96 98 98 96 96 94 97 95 92 89 85 88 87 86 85 83
71 67 64 72 76 75 75 73 75 75 84 84 81 82 82 79 88 86 87 87 86 83 86 84 82 98 98 98 96 98 96 90 94 90 94 91 86 89 90 89 88 87 85
76 73 70 66 66 69 71 77 76 76 77 80 78 83 79 82 85 86 88 87 88 90 89 92 86 98 97 97 99 98 97 95 85 86 92 89 89 90 90 89 88 86 84
78 75 73 72 70 67 67 65 66 75 77 76 76 77 78 79 81 81 84 88 86 91 94 95 92 98 98 97 94 97 99 94 91 70 78 83 90 94 92 90 88 83 74
75 72 74 72 71 68 63 70 69 70 72 72 73 72 72 74 79 77 76 82 86 90 91 92 96 100 99 100 98 96 97 96 95 95 97 95 92 90 89 89 74 74 76
77 76 73 73 74 66 73 79 71 68 66 70 74 74 74 85 84 86 88 87 82 90 92 95 97 98 95 96 97 98 99 99 99 97 98 96 80 71 60 62 67 73 76
80 79 77 77 73 72 86 87 82 63 68 72 74 75 78 79 89 82 100 99 99 98 99 93 94 96 100 98 97 99 99 98 98 92 84 80 59 55 52 38 60 62 61
80 80 79 78 78 75 93 95 94 79 72 71 76 78 79 84 94 98 99 98 98 97 98 95 97 99 98 94 93 92 92 90 88 81 76 94 64 60 60 61 65 67 70
75 78 79 80 80 80 98 93 94 86 84 98 98 99 99 99 100 98 98 97 98 98 96 94 95 94 91 92 99 93 97 96 98 90 87 81 69 67 68 66 60 64 65
75 79 96 98 99 100 100 100 99 98 99 99 98 99 98 98 98 94 93 91 94 97 95 95 96 96 96 97 95 96 98 97 97 91 69 76 76 73 80 77 70 75 78

GFSMA_sfc_rhum_069.txt.gz
RH
95 97 93 93 98 97 84 77 71 67 68 70 71 72 76 82 86 84 87 79 76 70 66 66 66 67 67 68 68 68 68 66 66 65 64 65 64 63 64 64 64 63 62
95 92 86 92 95 91 90 75 65 68 70 70 71 72 76 80 86 91 91 82 78 76 70 66 66 66 67 68 68 68 67 65 65 64 64 63 61 62 62 62 62 61 60
93 90 89 94 91 89 88 81 76 74 72 68 69 75 78 84 87 91 91 92 85 81 79 72 68 67 67 68 68 67 66 65 64 64 63 63 61 60 59 59 59 58 58
88 89 85 83 80 79 76 76 81 75 73 73 75 79 81 84 87 90 91 91 92 84 83 81 76 71 68 68 68 66 65 65 65 65 64 63 62 61 59 59 58 58 57
86 82 78 79 76 71 70 71 86 70 76 82 76 80 87 86 88 79 86 89 92 90 92 86 84 82 76 70 67 68 68 67 66 65 65 64 63 62 60 59 58 57 56
83 82 76 81 72 66 69 74 71 80 80 79 67 78 83 92 87 91 85 83 91 90 91 90 90 86 85 78 71 68 67 67 69 68 67 66 65 64 62 61 59 58 57
83 77 76 75 70 68 62 74 83 78 88 82 81 85 85 87 90 89 92 91 90 89 91 91 96 94 85 86 81 72 69 67 67 67 68 68 68 68 66 64 63 60 59
88 80 78 76 70 70 77 74 78 84 82 79 79 78 88 78 81 89 94 92 88 82 83 85 89 92 91 88 85 81 74 71 69 68 68 72 74 72 71 69 67 64 62
90 88 78 78 77 74 78 75 78 72 77 84 71 76 81 88 80 81 86 91 86 89 82 81 84 83 86 84 84 84 86 84 79 75 74 76 76 77 75 73 72 70 66
90 91 89 80 81 82 82 76 70 67 68 71 78 65 66 77 85 83 79 82 88 89 86 88 82 82 79 85 84 85 87 90 87 83 80 79 79 78 78 79 78 74 72
92 83 84 89 80 86 83 82 80 72 64 72 76 77 77 82 84 87 86 84 91 81 83 85 84 82 81 82 84 86 90 90 89 86 83 82 81 81 81 80 80 79 78
94 93 87 87 84 84 88 90 87 79 74 66 76 81 79 80 86 92 93 91 85 78 73 78 87 87 87 87 83 84 90 91 90 88 86 84 82 81 82 82 81 82 80
95 94 87 89 90 90 89 94 94 95 85 79 74 74 81 74 74 73 88 89 90 91 90 82 73 74 81 92 90 90 89 92 92 90 88 88 87 85 84 82 82 85 86
83 79 85 90 88 89 91 92 93 94 92 88 83 81 73 78 81 79 80 87 93 96 95 84 91 82 84 84 84 88 85 92 93 92 91 90 90 90 89 87 86 86 87
75 78 80 85 87 87 87 88 91 90 89 78 81 85 80 73 86 84 88 88 76 82 90 89 92 91 84 85 84 83 83 82 90 91 92 92 92 92 92 91 90 90 90
87 81 77 77 79 82 83 84 82 76 84 78 82 92 92 81 88 91 85 86 88 80 84 87 88 89 92 91 85 86 85 86 89 90 91 92 92 92 93 93 93 93 93
90 89 84 79 78 79 78 77 75 75 81 77 84 89 84 78 82 87 92 90 90 90 88 76 87 90 93 90 89 93 89 91 86 93 92 91 92 94 96 97 97 96 96
89 83 88 88 79 73 72 78 81 80 88 88 83 87 86 80 90 85 91 91 91 86 89 86 78 87 93 86 86 92 90 92 89 88 95 93 93 95 96 96 96 97 97
80 83 78 80 81 83 79 76 74 72 76 85 86 88 85 87 89 86 88 89 88 88 89 91 85 80 85 96 95 96 95 95 95 92 98 98 97 97 97 98 98 98 97
77 75 77 75 74 74 77 80 80 81 77 74 74 76 77 82 83 82 85 85 85 87 88 92 90 88 86 92 98 93 92 98 94 92 96 96 98 98 98 98 98 97 97
84 79 77 76 73 71 68 70 73 77 78 78 76 74 74 77 83 80 76 80 85 89 90 89 90 88 86 95 98 89 97 90 90 95 96 97 98 98 99 99 97 97 97
86 84 85 83 80 73 79 85 77 70 71 76 78 77 76 85 85 90 92 86 75 86 91 89 86 86 84 85 90 94 92 96 98 99 99 100 99 99 99 99 98 99 99
87 87 86 84 83 82 89 90 91 74 73 75 76 75 75 75 87 83 94 96 95 92 91 80 85 86 87 85 86 94 95 91 94 98 96 99 97 99 93 89 91 90 88
93 92 90 86 86 80 91 96 99 90 85 79 78 80 80 79 79 85 89 92 94 94 99 98 94 93 96 97 97 97 98 99 99 97 98 99 99 99 98 99 99 99 99
92 93 91 92 90 89 94 96 100 92 93 90 85 83 84 85 85 93 88 91 100 100 97 97 97 97 97 96 97 97 99 98 98 97 96 98 97 98 98 98 99 96 89
93 94 95 97 95 95 95 96 98 96 94 93 89 87 99 99 100 100 91 92 99 99 98 96 95 95 95 96 94 96 97 96 96 95 96 95 96 96 96 96 96 96 94

GFSMA_sfc_rhum_072.txt.gz
RH
96 93 96 98 94 92 86 83 80 80 80 79 76 76 78 83 85 84 86 79 76 67 65 61 63 65 67 67 68 68 68 67 67 68 68 68 67 66 66 66 66 66 64
94 89 95 96 96 84 82 78 74 76 77 78 79 77 78 84 84 87 86 80 78 75 70 64 64 65 66 67 68 68 68 67 66 66 66 66 65 66 66 66 65 63 62
92 90 92 96 94 90 89 79 78 82 81 77 80 78 79 85 87 89 89 88 80 80 78 73 68 66 67 67 68 68 68 67 65 64 65 64 63 64 64 64 63 62 60
90 92 94 95 92 87 80 73 76 80 83 83 85 83 80 84 90 91 90 89 88 81 82 79 76 73 69 68 68 68 67 66 66 65 65 64 62 62 61 61 61 59 59
92 92 94 93 85 84 81 74 81 76 82 88 84 83 85 89 91 84 90 90 90 88 88 84 81 80 77 71 69 68 67 66 66 65 65 64 64 62 61 61 60 60 59
94 95 91 90 78 77 78 71 73 81 82 82 74 89 92 90 92 93 90 84 89 88 88 88 88 86 84 78 71 69 68 68 67 67 67 66 66 65 64 62 61 60 60
94 87 84 82 75 74 72 72 70 72 90 84 90 94 94 91 91 91 91 90 88 87 88 88 90 88 84 85 80 70 68 68 68 69 69 69 69 68 67 65 63 62 61
92 89 84 76 73 70 78 72 71 82 85 81 87 89 97 88 85 87 90 89 90 86 86 86 88 89 87 86 87 82 74 71 68 67 70 75 75 72 71 70 68 66 64
93 91 89 76 73 66 74 77 82 79 88 90 77 84 93 94 89 88 90 92 91 89 84 83 85 84 87 85 85 84 88 86 80 76 75 76 78 78 77 75 73 72 69
92 90 89 86 73 71 78 73 75 79 80 81 84 73 74 82 90 90 86 91 87 86 86 84 82 84 82 83 84 86 88 90 87 83 82 80 79 79 80 80 80 77 74
95 92 90 91 81 80 85 82 82 78 79 81 81 78 79 80 80 87 86 80 87 84 80 83 82 82 80 79 81 85 90 90 90 86 83 81 82 81 82 81 82 81 81
97 95 96 92 90 90 89 89 86 76 78 80 79 81 80 79 84 86 87 87 85 78 77 82 86 83 80 82 80 83 90 92 91 88 87 85 83 82 82 83 84 83 83
98 96 94 96 94 87 90 91 89 87 84 85 83 75 82 80 83 81 84 84 84 86 87 82 79 79 80 88 85 88 89 92 92 90 88 87 86 86 84 82 82 83 85
91 91 93 94 94 91 91 92 91 94 94 94 88 87 79 74 79 74 73 79 88 92 92 82 84 77 80 84 85 90 84 93 92 92 91 90 89 88 88 87 86 84 83
86 90 92 96 94 94 94 94 95 93 94 93 95 94 90 77 81 80 81 83 73 78 75 83 89 88 82 84 83 83 86 85 93 93 93 92 91 90 90 90 90 89 88
86 86 86 89 93 94 96 95 94 92 94 95 94 95 92 83 81 87 74 82 86 69 69 69 79 86 90 88 84 85 84 86 87 91 93 94 93 92 92 92 92 92 91
87 85 83 86 88 90 91 94 89 88 92 90 90 90 86 80 78 80 89 85 85 84 82 69 87 87 91 87 87 89 86 86 81 90 91 90 90 90 90 92 92 93 93
92 91 86 85 83 83 84 87 87 82 86 87 86 85 80 74 79 77 85 88 87 84 88 84 73 79 91 84 80 84 82 84 82 84 91 91 92 92 92 93 94 95 95
92 92 90 91 86 82 82 83 81 82 81 80 79 78 80 80 84 84 87 88 88 87 89 91 84 78 79 94 91 89 85 87 89 87 93 93 94 93 93 94 94 95 97
86 84 82 82 82 84 86 83 80 82 80 79 80 78 76 76 76 75 81 83 84 86 87 93 91 87 81 79 94 88 88 94 87 84 91 90 94 97 97 96 96 98 98
85 81 83 85 81 78 76 81 82 84 85 82 79 76 76 78 84 82 74 80 84 88 88 85 83 84 86 85 92 83 93 88 84 88 88 94 96 98 98 99 98 98 99
90 88 86 82 84 77 85 87 83 79 78 80 82 80 79 86 84 87 90 85 70 76 86 84 80 82 79 78 78 87 90 89 94 96 94 96 98 99 98 97 98 99 99
92 93 93 91 89 85 97 94 92 79 76 75 75 75 75 74 85 79 86 94 94 92 84 72 78 81 82 78 78 82 86 90 89 97 98 99 97 98 96 93 94 94 95
91 93 92 92 92 90 95 96 99 93 86 81 80 80 80 80 77 80 83 87 89 91 91 91 88 86 96 98 98 94 94 96 97 96 97 99 100 98 98 98 96 95 96
90 94 94 93 90 88 92 94 94 94 97 93 87 86 89 87 89 91 89 88 91 100 97 96 95 94 93 93 96 99 100 100 98 97 96 98 98 97 97 97 96 95 95
89 89 87 88 88 90 91 93 94 93 98 98 95 98 98 98 96 97 99 95 96 100 96 95 94 95 93 93 92 96 97 98 98 97 96 96 95 97 96 97 96 95 93

GFSMA_sfc_rhum_075.txt.gz
RH
94 93 92 93 96 95 74 68 65 65 66 63 60 60 61 58 58 51 48 77 74 64 64 66 67 69 70 73 68 66 66 66 67 67 68 68 68 67 67 66 67 67 66
93 94 92 94 95 92 73 64 62 63 60 59 62 61 60 58 57 58 49 53 78 77 73 67 69 64 66 67 67 68 67 67 67 68 68 68 68 68 68 68 67 66 64
93 89 83 96 96 83 69 63 64 60 59 56 60 60 58 62 59 59 54 51 60 81 77 73 68 64 64 66 67 68 68 68 67 67 67 66 67 67 67 67 66 65 64
87 89 90 95 95 85 68 61 61 62 61 58 59 58 56 59 61 61 57 54 49 49 74 78 74 72 66 65 66 68 68 68 66 65 65 66 65 66 66 66 65 64 62
89 92 93 95 94 75 67 61 62 62 63 59 58 58 60 59 63 60 60 61 60 55 51 80 81 79 77 72 67 67 68 67 67 66 66 66 64 64 64 64 63 62 62
92 95 94 93 94 80 63 59 66 63 61 60 53 60 62 60 61 63 60 57 59 62 60 60 59 62 83 78 73 68 67 67 67 67 68 67 66 65 64 63 63 63 62
95 96 94 92 89 78 65 69 64 69 66 62 66 67 66 68 69 66 65 62 62 62 62 61 60 59 62 84 80 71 68 67 68 68 68 69 69 68 67 66 65 64 63
97 94 94 91 83 73 72 68 68 67 64 66 63 64 75 70 68 70 72 68 68 60 63 65 63 64 63 61 66 80 73 70 66 68 70 75 75 74 71 70 69 67 66
96 93 94 87 80 72 73 70 68 68 69 70 66 57 73 68 70 69 75 71 72 72 64 62 66 65 67 63 68 75 88 87 81 76 75 76 78 79 78 77 74 72 70
95 94 89 84 76 70 73 71 63 68 72 77 68 58 60 64 66 79 74 72 72 74 76 68 62 67 66 62 69 76 85 90 88 85 83 81 80 80 81 81 80 80 79
93 91 91 87 79 69 74 76 73 68 65 68 65 66 62 60 62 68 74 76 74 68 62 68 67 64 62 62 68 74 89 89 90 86 84 82 82 83 83 82 82 82 82
98 95 92 92 86 80 82 81 78 70 68 69 66 65 62 60 61 59 65 69 68 62 60 63 68 66 64 70 72 78 87 91 91 87 85 84 82 82 81 83 84 84 83
98 98 96 95 92 88 82 82 84 81 75 73 72 68 69 65 66 56 64 63 54 60 64 66 71 71 69 71 68 82 84 91 92 90 88 87 86 85 83 82 82 83 84
91 95 96 94 92 92 91 88 88 85 85 85 80 74 67 68 65 58 59 62 65 68 70 63 69 70 68 65 69 86 72 91 92 92 91 89 88 88 87 87 86 85 83
88 90 93 97 94 92 92 92 92 88 87 88 88 84 82 65 71 67 63 59 52 58 52 55 65 67 61 59 69 68 69 79 92 93 92 91 90 90 90 89 89 88 87
90 88 86 91 96 96 95 95 92 89 90 92 92 92 91 84 78 78 77 74 84 60 59 50 52 59 66 66 68 71 68 82 89 93 94 94 93 92 91 91 90 90 90
90 90 88 92 92 91 91 95 95 93 92 85 86 87 87 87 92 90 90 87 85 86 80 59 49 53 67 70 66 72 78 76 69 88 91 91 92 92 92 92 92 92 92
85 85 86 87 86 83 80 85 87 92 94 94 91 92 91 88 92 89 86 86 80 70 75 73 56 55 66 64 66 68 63 63 65 72 87 90 90 90 90 91 92 92 92
75 77 78 80 81 76 75 85 82 81 82 84 85 88 86 87 87 82 80 76 72 72 74 77 67 56 55 59 67 72 69 66 57 72 85 89 90 90 90 90 91 91 91
74 73 73 72 72 70 74 76 76 79 76 72 74 76 75 74 73 71 72 72 72 76 76 84 83 71 64 58 64 71 68 64 66 57 72 79 80 88 95 92 94 94 94
77 73 74 74 72 72 75 79 77 80 79 76 73 68 68 72 78 73 61 68 69 73 74 75 76 70 69 69 73 66 72 69 67 67 70 71 73 76 80 98 96 98 97
93 91 91 88 88 83 97 99 95 80 77 76 76 73 70 86 84 91 90 84 71 71 77 77 74 76 72 65 62 66 70 74 80 69 80 84 92 98 94 93 97 99 100
88 91 92 91 95 89 94 94 95 88 88 83 82 80 77 71 82 71 86 94 93 93 88 72 75 75 76 74 75 78 79 81 81 75 94 93 96 97 95 91 94 96 97
90 91 89 86 88 81 92 93 94 87 90 92 89 85 86 85 82 88 85 87 88 88 91 91 91 86 94 96 96 95 94 94 98 96 97 99 97 98 95 96 91 90 90
86 84 83 83 84 85 88 90 90 84 86 92 94 91 91 91 94 95 97 98 93 100 98 94 94 94 92 92 94 99 99 100 100 97 97 98 97 96 95 96 96 94 94
78 76 79 82 85 82 86 88 85 86 94 90 87 88 93 94 94 94 98 99 99 99 96 95 94 93 94 94 92 96 98 100 100 98 97 97 97 97 96 97 95 94 94